Time,TemperatureF,DewpointF,PressureIn,WindDirection,WindDirectionDegrees,WindSpeedMPH,WindSpeedGustMPH,Humidity,HourlyPrecipIn,Conditions,Clouds,dailyrainin,SoftwareType,DateUTC
2013-02-06 00:00:00,28.4,21.5,30.00,ESE,112,0.0,0.0,75,0.00,CLR,,0.00,WeatherDisplay:10.37,2013-02-06 05:00:00,
2013-02-06 00:05:00,28.6,22.0,30.00,ESE,112,0.0,0.0,76,0.00,CLR,,0.00,WeatherDisplay:10.37,2013-02-06 05:05:00,
2013-02-06 00:10:00,28.6,22.0,30.00,ESE,112,0.0,0.0,76,0.00,CLR,,0.00,WeatherDisplay:10.37,2013-02-06 05:10:00,
2013-02-06 00:11:00,28.6,22.0,30.00,ESE,112,0.0,0.0,76,0.00,CLR,,0.00,WeatherDisplay:10.37,2013-02-06 05:11:00,
2013-02-06 00:15:00,28.6,22.0,30.00,ESE,112,0.0,0.0,76,0.00,CLR,,0.00,WeatherDisplay:10.37,2013-02-06 05:15:00,
2013-02-06 00:16:00,28.6,22.0,30.00,ESE,112,0.0,0.0,76,0.00,CLR,,0.00,WeatherDisplay:10.37,2013-02-06 05:16:00,
2013-02-06 00:20:00,28.6,22.0,30.00,ESE,112,0.0,0.0,76,0.00,CLR,,0.00,WeatherDisplay:10.37,2013-02-06 05:20:00,
2013-02-06 00:21:00,28.6,22.0,30.00,ESE,112,0.0,0.0,76,0.00,CLR,,0.00,WeatherDisplay:10.37,2013-02-06 05:21:00,
2013-02-06 00:26:00,28.6,22.0,30.00,ESE,112,0.0,0.0,76,0.00,CLR,,0.00,WeatherDisplay:10.37,2013-02-06 05:26:00,
2013-02-06 00:31:00,29.1,22.2,29.99,North,0,0.0,0.0,75,0.00,CLR,,0.00,WeatherDisplay:10.37,2013-02-06 05:31:00,
2013-02-06 00:32:00,29.1,22.2,29.99,North,0,0.0,0.0,75,0.00,CLR,,0.00,WeatherDisplay:10.37,2013-02-06 05:32:00,
2013-02-06 00:36:00,29.1,22.2,29.99,North,0,0.0,0.0,75,0.00,CLR,,0.00,WeatherDisplay:10.37,2013-02-06 05:36:00,
2013-02-06 00:37:00,29.1,22.2,29.99,North,0,0.0,0.0,75,0.00,CLR,,0.00,WeatherDisplay:10.37,2013-02-06 05:37:00,
2013-02-06 00:41:00,29.1,22.2,29.99,North,0,0.0,0.0,75,0.00,CLR,,0.00,WeatherDisplay:10.37,2013-02-06 05:41:00,
2013-02-06 00:42:00,29.1,22.2,29.99,North,0,0.0,0.0,75,0.00,CLR,,0.00,WeatherDisplay:10.37,2013-02-06 05:42:00,
2013-02-06 00:46:00,29.1,22.2,29.99,North,0,0.0,0.0,75,0.00,CLR,,0.00,WeatherDisplay:10.37,2013-02-06 05:46:00,
2013-02-06 00:47:00,29.1,22.2,29.99,North,0,0.0,0.0,75,0.00,CLR,,0.00,WeatherDisplay:10.37,2013-02-06 05:47:00,
2013-02-06 00:52:00,29.1,22.2,29.99,North,0,0.0,0.0,75,0.00,CLR,,0.00,WeatherDisplay:10.37,2013-02-06 05:52:00,
2013-02-06 00:57:00,29.1,22.2,29.99,North,0,0.0,0.0,75,0.00,CLR,,0.00,WeatherDisplay:10.37,2013-02-06 05:57:00,
2013-02-06 01:02:00,29.3,22.4,30.00,NNE,22,0.0,0.0,75,0.00,CLR,,0.00,WeatherDisplay:10.37,2013-02-06 06:02:00,
2013-02-06 01:07:00,29.3,22.4,30.00,NNE,22,0.0,0.0,75,0.00,CLR,,0.00,WeatherDisplay:10.37,2013-02-06 06:07:00,
2013-02-06 01:08:00,29.3,22.4,30.00,NNE,22,0.0,0.0,75,0.00,CLR,,0.00,WeatherDisplay:10.37,2013-02-06 06:08:00,
2013-02-06 01:12:00,29.3,22.4,30.00,NNE,22,0.0,0.0,75,0.00,CLR,,0.00,WeatherDisplay:10.37,2013-02-06 06:12:00,
2013-02-06 01:13:00,29.3,22.4,30.00,NNE,22,0.0,0.0,75,0.00,CLR,,0.00,WeatherDisplay:10.37,2013-02-06 06:13:00,
2013-02-06 01:17:00,29.3,22.4,30.00,NNE,22,0.0,0.0,75,0.00,CLR,,0.00,WeatherDisplay:10.37,2013-02-06 06:17:00,
2013-02-06 01:18:00,29.3,22.4,30.00,NNE,22,0.0,0.0,75,0.00,CLR,,0.00,WeatherDisplay:10.37,2013-02-06 06:18:00,
2013-02-06 01:19:00,29.3,22.4,30.00,NNE,22,0.0,0.0,75,0.00,CLR,,0.00,WeatherDisplay:10.37,2013-02-06 06:19:00,
2013-02-06 01:22:00,29.3,22.4,30.00,NNE,22,0.0,0.0,75,0.00,CLR,,0.00,WeatherDisplay:10.37,2013-02-06 06:22:00,
2013-02-06 01:23:00,29.3,22.4,30.00,NNE,22,0.0,0.0,75,0.00,CLR,,0.00,WeatherDisplay:10.37,2013-02-06 06:23:00,
2013-02-06 01:24:00,29.3,22.4,30.00,NNE,22,0.0,0.0,75,0.00,CLR,,0.00,WeatherDisplay:10.37,2013-02-06 06:24:00,
2013-02-06 01:27:00,29.3,22.4,30.00,NNE,22,0.0,0.0,75,0.00,CLR,,0.00,WeatherDisplay:10.37,2013-02-06 06:27:00,
2013-02-06 01:28:00,29.3,22.4,30.00,NNE,22,0.0,0.0,75,0.00,CLR,,0.00,WeatherDisplay:10.37,2013-02-06 06:28:00,
2013-02-06 01:29:00,29.3,22.4,30.00,NNE,22,0.0,0.0,75,0.00,CLR,,0.00,WeatherDisplay:10.37,2013-02-06 06:29:00,
2013-02-06 01:33:00,29.1,22.2,30.00,South,180,0.0,0.0,75,0.00,CLR,,0.00,WeatherDisplay:10.37,2013-02-06 06:33:00,
2013-02-06 01:34:00,29.1,22.2,30.00,South,180,0.0,0.0,75,0.00,CLR,,0.00,WeatherDisplay:10.37,2013-02-06 06:34:00,
2013-02-06 01:38:00,29.1,22.2,30.00,South,180,0.0,0.0,75,0.00,CLR,,0.00,WeatherDisplay:10.37,2013-02-06 06:38:00,
2013-02-06 01:39:00,29.1,22.2,30.00,South,180,0.0,0.0,75,0.00,CLR,,0.00,WeatherDisplay:10.37,2013-02-06 06:39:00,
2013-02-06 01:43:00,29.1,22.2,30.00,South,180,0.0,0.0,75,0.00,CLR,,0.00,WeatherDisplay:10.37,2013-02-06 06:43:00,
2013-02-06 01:44:00,29.1,22.2,30.00,South,180,0.0,0.0,75,0.00,CLR,,0.00,WeatherDisplay:10.37,2013-02-06 06:44:00,
2013-02-06 01:48:00,29.1,22.2,30.00,South,180,0.0,0.0,75,0.00,CLR,,0.00,WeatherDisplay:10.37,2013-02-06 06:48:00,
2013-02-06 01:49:00,29.1,22.2,30.00,South,180,0.0,0.0,75,0.00,CLR,,0.00,WeatherDisplay:10.37,2013-02-06 06:49:00,
2013-02-06 01:53:00,29.1,22.2,30.00,South,180,0.0,0.0,75,0.00,CLR,,0.00,WeatherDisplay:10.37,2013-02-06 06:53:00,
2013-02-06 01:54:00,29.1,22.2,30.00,South,180,0.0,0.0,75,0.00,CLR,,0.00,WeatherDisplay:10.37,2013-02-06 06:54:00,
2013-02-06 01:58:00,29.1,22.2,30.00,South,180,0.0,0.0,75,0.00,CLR,,0.00,WeatherDisplay:10.37,2013-02-06 06:58:00,
2013-02-06 01:59:00,29.1,22.2,30.00,South,180,0.0,0.0,75,0.00,CLR,,0.00,WeatherDisplay:10.37,2013-02-06 06:59:00,
2013-02-06 02:04:00,29.1,22.5,30.00,SE,135,0.0,0.0,76,0.00,CLR,,0.00,WeatherDisplay:10.37,2013-02-06 07:04:00,
2013-02-06 02:05:00,29.1,22.5,30.00,SSE,156,0.0,0.0,76,0.00,CLR,,0.00,WeatherDisplay:10.37,2013-02-06 07:05:00,
2013-02-06 02:09:00,29.1,22.5,30.00,SE,135,0.0,0.0,76,0.00,CLR,,0.00,WeatherDisplay:10.37,2013-02-06 07:09:00,
2013-02-06 02:10:00,29.1,22.5,30.00,SE,135,0.0,0.0,76,0.00,CLR,,0.00,WeatherDisplay:10.37,2013-02-06 07:10:00,
2013-02-06 02:14:00,29.1,22.5,30.00,SE,135,0.0,0.0,76,0.00,CLR,,0.00,WeatherDisplay:10.37,2013-02-06 07:14:00,
2013-02-06 02:15:00,29.1,22.5,30.00,SE,135,0.0,0.0,76,0.00,CLR,,0.00,WeatherDisplay:10.37,2013-02-06 07:15:00,
2013-02-06 02:19:00,29.1,22.5,30.00,SE,135,0.0,0.0,76,0.00,CLR,,0.00,WeatherDisplay:10.37,2013-02-06 07:19:00,
2013-02-06 02:20:00,29.1,22.5,30.00,SE,135,0.0,0.0,76,0.00,CLR,,0.00,WeatherDisplay:10.37,2013-02-06 07:20:00,
2013-02-06 02:24:00,29.1,22.5,30.00,SE,135,0.0,0.0,76,0.00,CLR,,0.00,WeatherDisplay:10.37,2013-02-06 07:24:00,
2013-02-06 02:25:00,29.1,22.5,30.00,SE,135,0.0,0.0,76,0.00,CLR,,0.00,WeatherDisplay:10.37,2013-02-06 07:25:00,
2013-02-06 02:29:00,29.1,22.5,30.00,SE,135,0.0,0.0,76,0.00,CLR,,0.00,WeatherDisplay:10.37,2013-02-06 07:29:00,
2013-02-06 02:30:00,29.1,22.5,30.00,SE,135,0.0,0.0,76,0.00,CLR,,0.00,WeatherDisplay:10.37,2013-02-06 07:30:00,
2013-02-06 02:35:00,29.1,22.2,30.00,ESE,123,0.0,0.0,75,0.00,CLR,,0.00,WeatherDisplay:10.37,2013-02-06 07:35:00,
2013-02-06 02:40:00,29.1,22.2,30.00,ESE,112,0.0,0.0,75,0.00,CLR,,0.00,WeatherDisplay:10.37,2013-02-06 07:40:00,
2013-02-06 02:41:00,29.1,22.2,30.00,ESE,112,0.0,0.0,75,0.00,CLR,,0.00,WeatherDisplay:10.37,2013-02-06 07:41:00,
2013-02-06 02:45:00,29.1,22.2,30.00,ESE,112,0.0,0.0,75,0.00,CLR,,0.00,WeatherDisplay:10.37,2013-02-06 07:45:00,
2013-02-06 02:46:00,29.1,22.2,30.00,ESE,112,0.0,0.0,75,0.00,CLR,,0.00,WeatherDisplay:10.37,2013-02-06 07:46:00,
2013-02-06 02:50:00,29.1,22.2,30.00,ESE,112,0.0,0.0,75,0.00,CLR,,0.00,WeatherDisplay:10.37,2013-02-06 07:50:00,
2013-02-06 02:51:00,29.1,22.2,30.00,ESE,112,0.0,0.0,75,0.00,CLR,,0.00,WeatherDisplay:10.37,2013-02-06 07:51:00,
2013-02-06 02:55:00,29.1,22.2,30.00,ESE,112,0.0,0.0,75,0.00,CLR,,0.00,WeatherDisplay:10.37,2013-02-06 07:55:00,
2013-02-06 02:56:00,29.1,22.2,30.00,ESE,112,0.0,0.0,75,0.00,CLR,,0.00,WeatherDisplay:10.37,2013-02-06 07:56:00,
2013-02-06 03:00:00,29.1,22.2,30.00,ESE,112,0.0,0.0,75,0.00,CLR,,0.00,WeatherDisplay:10.37,2013-02-06 08:00:00,
2013-02-06 03:01:00,29.3,22.4,30.00,ESE,112,0.0,0.0,75,0.00,CLR,,0.00,WeatherDisplay:10.37,2013-02-06 08:01:00,
2013-02-06 03:05:00,29.3,22.4,30.00,ESE,112,0.0,0.0,75,0.00,CLR,,0.00,WeatherDisplay:10.37,2013-02-06 08:05:00,
2013-02-06 03:06:00,29.3,22.4,30.00,ESE,112,0.0,0.0,75,0.00,CLR,,0.00,WeatherDisplay:10.37,2013-02-06 08:06:00,
2013-02-06 03:10:00,29.3,22.4,30.00,ESE,112,0.0,0.0,75,0.00,CLR,,0.00,WeatherDisplay:10.37,2013-02-06 08:10:00,
2013-02-06 03:11:00,29.3,22.4,30.00,ESE,112,0.0,0.0,75,0.00,CLR,,0.00,WeatherDisplay:10.37,2013-02-06 08:11:00,
2013-02-06 03:12:00,29.3,22.4,30.00,ESE,112,0.0,0.0,75,0.00,CLR,,0.00,WeatherDisplay:10.37,2013-02-06 08:12:00,
2013-02-06 03:15:00,29.3,22.4,30.00,ESE,112,0.0,0.0,75,0.00,CLR,,0.00,WeatherDisplay:10.37,2013-02-06 08:15:00,
2013-02-06 03:16:00,29.3,22.4,30.00,ESE,112,0.0,0.0,75,0.00,CLR,,0.00,WeatherDisplay:10.37,2013-02-06 08:16:00,
2013-02-06 03:17:00,29.3,22.4,30.00,ESE,112,0.0,0.0,75,0.00,CLR,,0.00,WeatherDisplay:10.37,2013-02-06 08:17:00,
2013-02-06 03:20:00,29.3,22.4,30.00,ESE,112,0.0,0.0,75,0.00,CLR,,0.00,WeatherDisplay:10.37,2013-02-06 08:20:00,
2013-02-06 03:22:00,29.3,22.4,30.00,ESE,112,0.0,0.0,75,0.00,CLR,,0.00,WeatherDisplay:10.37,2013-02-06 08:22:00,
2013-02-06 03:25:00,29.3,22.4,30.00,ESE,112,0.0,0.0,75,0.00,CLR,,0.00,WeatherDisplay:10.37,2013-02-06 08:25:00,
2013-02-06 03:27:00,29.3,22.4,30.00,ESE,112,0.0,0.0,75,0.00,CLR,,0.00,WeatherDisplay:10.37,2013-02-06 08:27:00,
2013-02-06 03:30:00,29.3,22.4,30.00,NNW,338,0.0,0.0,75,0.00,CLR,,0.00,WeatherDisplay:10.37,2013-02-06 08:30:00,
2013-02-06 03:31:00,29.3,22.4,30.00,NNW,338,0.0,0.0,75,0.00,CLR,,0.00,WeatherDisplay:10.37,2013-02-06 08:31:00,
2013-02-06 03:32:00,29.3,22.4,30.00,NNW,338,0.0,0.0,75,0.00,CLR,,0.00,WeatherDisplay:10.37,2013-02-06 08:32:00,
2013-02-06 03:36:00,29.3,22.4,30.00,NNW,338,0.0,0.0,75,0.00,CLR,,0.00,WeatherDisplay:10.37,2013-02-06 08:36:00,
2013-02-06 03:37:00,29.3,22.4,30.00,NNW,338,0.0,0.0,75,0.00,CLR,,0.00,WeatherDisplay:10.37,2013-02-06 08:37:00,
2013-02-06 03:41:00,29.3,22.4,30.00,NNW,338,0.0,0.0,75,0.00,CLR,,0.00,WeatherDisplay:10.37,2013-02-06 08:41:00,
2013-02-06 03:42:00,29.3,22.4,30.00,NNW,338,0.0,0.0,75,0.00,CLR,,0.00,WeatherDisplay:10.37,2013-02-06 08:42:00,
2013-02-06 03:43:00,29.3,22.4,30.00,NNW,338,0.0,0.0,75,0.00,CLR,,0.00,WeatherDisplay:10.37,2013-02-06 08:43:00,
2013-02-06 03:46:00,29.3,22.4,30.00,NNW,338,0.0,0.0,75,0.00,CLR,,0.00,WeatherDisplay:10.37,2013-02-06 08:46:00,
2013-02-06 03:47:00,29.3,22.4,30.00,NNW,338,0.0,0.0,75,0.00,CLR,,0.00,WeatherDisplay:10.37,2013-02-06 08:47:00,
2013-02-06 03:48:00,29.3,22.4,30.00,NNW,338,0.0,0.0,75,0.00,CLR,,0.00,WeatherDisplay:10.37,2013-02-06 08:48:00,
2013-02-06 03:51:00,29.3,22.4,30.00,NNW,338,0.0,0.0,75,0.00,CLR,,0.00,WeatherDisplay:10.37,2013-02-06 08:51:00,
2013-02-06 03:52:00,29.3,22.4,30.00,NNW,338,0.0,0.0,75,0.00,CLR,,0.00,WeatherDisplay:10.37,2013-02-06 08:52:00,
2013-02-06 03:53:00,29.3,22.4,30.00,NNW,338,0.0,0.0,75,0.00,CLR,,0.00,WeatherDisplay:10.37,2013-02-06 08:53:00,
2013-02-06 03:56:00,29.3,22.4,30.00,NNW,338,0.0,0.0,75,0.00,CLR,,0.00,WeatherDisplay:10.37,2013-02-06 08:56:00,
2013-02-06 03:57:00,29.3,22.4,30.00,NNW,338,0.0,0.0,75,0.00,CLR,,0.00,WeatherDisplay:10.37,2013-02-06 08:57:00,
2013-02-06 03:58:00,29.3,22.4,30.00,NNW,338,0.0,0.0,75,0.00,CLR,,0.00,WeatherDisplay:10.37,2013-02-06 08:58:00,
2013-02-06 04:01:00,29.5,22.5,30.01,ESE,112,0.0,0.0,75,0.00,CLR,,0.00,WeatherDisplay:10.37,2013-02-06 09:01:00,
2013-02-06 04:03:00,29.5,22.5,30.01,ESE,112,0.0,0.0,75,0.00,CLR,,0.00,WeatherDisplay:10.37,2013-02-06 09:03:00,
2013-02-06 04:04:00,29.5,22.5,30.01,ESE,112,0.0,0.0,75,0.00,CLR,,0.00,WeatherDisplay:10.37,2013-02-06 09:04:00,
2013-02-06 04:06:00,29.5,22.5,30.01,ESE,112,0.0,0.0,75,0.00,CLR,,0.00,WeatherDisplay:10.37,2013-02-06 09:06:00,
2013-02-06 04:08:00,29.5,22.5,30.01,ESE,112,0.0,0.0,75,0.00,CLR,,0.00,WeatherDisplay:10.37,2013-02-06 09:08:00,
2013-02-06 04:09:00,29.5,22.5,30.01,ESE,112,0.0,0.0,75,0.00,CLR,,0.00,WeatherDisplay:10.37,2013-02-06 09:09:00,
2013-02-06 04:11:00,29.5,22.5,30.01,ESE,112,0.0,0.0,75,0.00,CLR,,0.00,WeatherDisplay:10.37,2013-02-06 09:11:00,
2013-02-06 04:13:00,29.5,22.5,30.01,ESE,112,0.0,0.0,75,0.00,CLR,,0.00,WeatherDisplay:10.37,2013-02-06 09:13:00,
2013-02-06 04:14:00,29.5,22.5,30.01,ESE,112,0.0,0.0,75,0.00,CLR,,0.00,WeatherDisplay:10.37,2013-02-06 09:14:00,
2013-02-06 04:17:00,29.5,22.5,30.01,ESE,112,0.0,0.0,75,0.00,CLR,,0.00,WeatherDisplay:10.37,2013-02-06 09:17:00,
2013-02-06 04:18:00,29.5,22.5,30.01,ESE,112,0.0,0.0,75,0.00,CLR,,0.00,WeatherDisplay:10.37,2013-02-06 09:18:00,
2013-02-06 04:19:00,29.5,22.5,30.01,ESE,112,0.0,0.0,75,0.00,CLR,,0.00,WeatherDisplay:10.37,2013-02-06 09:19:00,
2013-02-06 04:22:00,29.5,22.5,30.01,ESE,112,0.0,0.0,75,0.00,CLR,,0.00,WeatherDisplay:10.37,2013-02-06 09:22:00,
2013-02-06 04:24:00,29.5,22.5,30.01,ESE,112,0.0,0.0,75,0.00,CLR,,0.00,WeatherDisplay:10.37,2013-02-06 09:24:00,
2013-02-06 04:25:00,29.5,22.5,30.01,ESE,112,0.0,0.0,75,0.00,CLR,,0.00,WeatherDisplay:10.37,2013-02-06 09:25:00,
2013-02-06 04:27:00,29.5,22.5,30.01,ESE,112,0.0,0.0,75,0.00,CLR,,0.00,WeatherDisplay:10.37,2013-02-06 09:27:00,
2013-02-06 04:29:00,29.5,22.5,30.01,ESE,112,0.0,0.0,75,0.00,CLR,,0.00,WeatherDisplay:10.37,2013-02-06 09:29:00,
2013-02-06 04:30:00,29.5,22.5,30.01,ESE,112,0.0,0.0,75,0.00,CLR,,0.00,WeatherDisplay:10.37,2013-02-06 09:30:00,
2013-02-06 04:32:00,29.7,23.0,30.01,NNW,338,0.0,0.0,76,0.00,CLR,,0.00,WeatherDisplay:10.37,2013-02-06 09:32:00,
2013-02-06 04:34:00,29.7,23.0,30.01,NNW,338,0.0,0.0,76,0.00,CLR,,0.00,WeatherDisplay:10.37,2013-02-06 09:34:00,
2013-02-06 04:36:00,29.7,23.0,30.01,NNW,338,0.0,0.0,76,0.00,CLR,,0.00,WeatherDisplay:10.37,2013-02-06 09:36:00,
2013-02-06 04:37:00,29.7,23.0,30.01,NNW,338,0.0,0.0,76,0.00,CLR,,0.00,WeatherDisplay:10.37,2013-02-06 09:37:00,
2013-02-06 04:39:00,29.7,23.0,30.01,NNW,338,0.0,0.0,76,0.00,CLR,,0.00,WeatherDisplay:10.37,2013-02-06 09:39:00,
2013-02-06 04:41:00,29.7,23.0,30.01,NNW,338,0.0,0.0,76,0.00,CLR,,0.00,WeatherDisplay:10.37,2013-02-06 09:41:00,
2013-02-06 04:42:00,29.7,23.0,30.01,NNW,338,0.0,0.0,76,0.00,CLR,,0.00,WeatherDisplay:10.37,2013-02-06 09:42:00,
2013-02-06 04:44:00,29.7,23.0,30.01,NNW,338,0.0,0.0,76,0.00,CLR,,0.00,WeatherDisplay:10.37,2013-02-06 09:44:00,
2013-02-06 04:46:00,29.7,23.0,30.01,NNW,338,0.0,0.0,76,0.00,CLR,,0.00,WeatherDisplay:10.37,2013-02-06 09:46:00,
2013-02-06 04:47:00,29.7,23.0,30.01,NNW,338,0.0,0.0,76,0.00,CLR,,0.00,WeatherDisplay:10.37,2013-02-06 09:47:00,
2013-02-06 04:49:00,29.7,23.0,30.01,NNW,338,0.0,0.0,76,0.00,CLR,,0.00,WeatherDisplay:10.37,2013-02-06 09:49:00,
2013-02-06 04:50:00,29.7,23.0,30.01,NNW,338,0.0,0.0,76,0.00,CLR,,0.00,WeatherDisplay:10.37,2013-02-06 09:50:00,
2013-02-06 04:51:00,29.7,23.0,30.01,NNW,338,0.0,0.0,76,0.00,CLR,,0.00,WeatherDisplay:10.37,2013-02-06 09:51:00,
2013-02-06 04:52:00,29.7,23.0,30.01,NNW,338,0.0,0.0,76,0.00,CLR,,0.00,WeatherDisplay:10.37,2013-02-06 09:52:00,
2013-02-06 04:55:00,29.7,23.0,30.01,NNW,338,0.0,0.0,76,0.00,CLR,,0.00,WeatherDisplay:10.37,2013-02-06 09:55:00,
2013-02-06 04:56:00,29.7,23.0,30.01,NNW,338,0.0,0.0,76,0.00,CLR,,0.00,WeatherDisplay:10.37,2013-02-06 09:56:00,
2013-02-06 04:58:00,29.7,23.0,30.01,NNW,338,0.0,0.0,76,0.00,CLR,,0.00,WeatherDisplay:10.37,2013-02-06 09:58:00,
2013-02-06 05:00:00,29.7,23.0,30.01,NNW,338,0.0,0.0,76,0.00,CLR,,0.00,WeatherDisplay:10.37,2013-02-06 10:00:00,
2013-02-06 05:01:00,30.0,23.7,30.03,East,90,0.0,0.5,77,0.00,CLR,,0.00,WeatherDisplay:10.37,2013-02-06 10:01:00,
2013-02-06 05:03:00,30.0,23.7,30.03,East,90,0.0,0.5,77,0.00,CLR,,0.00,WeatherDisplay:10.37,2013-02-06 10:03:00,
2013-02-06 05:05:00,30.0,23.7,30.03,East,90,0.0,0.5,77,0.00,CLR,,0.00,WeatherDisplay:10.37,2013-02-06 10:05:00,
2013-02-06 05:06:00,30.0,23.7,30.03,East,90,0.0,0.5,77,0.00,CLR,,0.00,WeatherDisplay:10.37,2013-02-06 10:06:00,
2013-02-06 05:08:00,30.0,23.7,30.03,East,90,0.0,0.5,77,0.00,CLR,,0.00,WeatherDisplay:10.37,2013-02-06 10:08:00,
2013-02-06 05:10:00,30.0,23.7,30.03,East,90,0.0,0.5,77,0.00,CLR,,0.00,WeatherDisplay:10.37,2013-02-06 10:10:00,
2013-02-06 05:11:00,30.0,23.7,30.03,East,90,0.0,0.5,77,0.00,CLR,,0.00,WeatherDisplay:10.37,2013-02-06 10:11:00,
2013-02-06 05:13:00,30.0,23.7,30.03,East,90,0.0,0.5,77,0.00,CLR,,0.00,WeatherDisplay:10.37,2013-02-06 10:13:00,
2013-02-06 05:15:00,30.0,23.7,30.03,East,90,0.0,0.5,77,0.00,CLR,,0.00,WeatherDisplay:10.37,2013-02-06 10:15:00,
2013-02-06 05:16:00,30.0,23.7,30.03,East,90,0.0,0.5,77,0.00,CLR,,0.00,WeatherDisplay:10.37,2013-02-06 10:16:00,
2013-02-06 05:18:00,30.0,23.7,30.03,East,90,0.5,0.5,77,0.00,CLR,,0.00,WeatherDisplay:10.37,2013-02-06 10:18:00,
2013-02-06 05:20:00,30.0,23.7,30.03,East,90,0.0,0.5,77,0.00,CLR,,0.00,WeatherDisplay:10.37,2013-02-06 10:20:00,
2013-02-06 05:21:00,30.0,23.7,30.03,East,90,0.0,0.5,77,0.00,CLR,,0.00,WeatherDisplay:10.37,2013-02-06 10:21:00,
2013-02-06 05:22:00,30.0,23.7,30.03,East,90,0.0,0.5,77,0.00,CLR,,0.00,WeatherDisplay:10.37,2013-02-06 10:22:00,
2013-02-06 05:23:00,30.0,23.7,30.03,East,90,0.0,0.5,77,0.00,CLR,,0.00,WeatherDisplay:10.37,2013-02-06 10:23:00,
2013-02-06 05:25:00,30.0,23.7,30.03,East,90,0.5,0.5,77,0.00,CLR,,0.00,WeatherDisplay:10.37,2013-02-06 10:25:00,
2013-02-06 05:27:00,30.0,23.7,30.03,East,90,0.0,0.5,77,0.00,CLR,,0.00,WeatherDisplay:10.37,2013-02-06 10:27:00,
2013-02-06 05:29:00,30.0,23.7,30.03,East,90,0.0,0.5,77,0.00,CLR,,0.00,WeatherDisplay:10.37,2013-02-06 10:29:00,
2013-02-06 05:31:00,30.2,23.9,30.04,North,0,0.0,0.0,77,0.00,CLR,,0.00,WeatherDisplay:10.37,2013-02-06 10:31:00,
2013-02-06 05:32:00,30.2,23.9,30.04,North,0,0.0,0.0,77,0.00,CLR,,0.00,WeatherDisplay:10.37,2013-02-06 10:32:00,
2013-02-06 05:34:00,30.2,23.9,30.04,North,0,0.0,0.0,77,0.00,CLR,,0.00,WeatherDisplay:10.37,2013-02-06 10:34:00,
2013-02-06 05:36:00,30.2,23.9,30.04,North,0,0.0,0.0,77,0.00,CLR,,0.00,WeatherDisplay:10.37,2013-02-06 10:36:00,
2013-02-06 05:37:00,30.2,23.9,30.04,North,0,0.0,0.0,77,0.00,CLR,,0.00,WeatherDisplay:10.37,2013-02-06 10:37:00,
2013-02-06 05:39:00,30.2,23.9,30.04,North,0,0.0,0.0,77,0.00,CLR,,0.00,WeatherDisplay:10.37,2013-02-06 10:39:00,
2013-02-06 05:41:00,30.2,23.9,30.04,North,0,0.0,0.0,77,0.00,CLR,,0.00,WeatherDisplay:10.37,2013-02-06 10:41:00,
2013-02-06 05:42:00,30.2,23.9,30.04,North,0,0.0,0.0,77,0.00,CLR,,0.00,WeatherDisplay:10.37,2013-02-06 10:42:00,
2013-02-06 05:45:00,30.2,23.9,30.04,North,0,0.0,0.0,77,0.00,CLR,,0.00,WeatherDisplay:10.37,2013-02-06 10:45:00,
2013-02-06 05:46:00,30.2,23.9,30.04,North,0,0.0,0.0,77,0.00,CLR,,0.00,WeatherDisplay:10.37,2013-02-06 10:46:00,
2013-02-06 05:47:00,30.2,23.9,30.04,North,0,0.0,0.0,77,0.00,CLR,,0.00,WeatherDisplay:10.37,2013-02-06 10:47:00,
2013-02-06 05:50:00,30.2,23.9,30.04,North,0,0.0,0.0,77,0.00,CLR,,0.00,WeatherDisplay:10.37,2013-02-06 10:50:00,
2013-02-06 05:51:00,30.2,23.9,30.04,North,0,0.0,0.0,77,0.00,CLR,,0.00,WeatherDisplay:10.37,2013-02-06 10:51:00,
2013-02-06 05:52:00,30.2,23.9,30.04,North,0,0.0,0.0,77,0.00,CLR,,0.00,WeatherDisplay:10.37,2013-02-06 10:52:00,
2013-02-06 05:55:00,30.2,23.9,30.04,North,0,0.0,0.0,77,0.00,CLR,,0.00,WeatherDisplay:10.37,2013-02-06 10:55:00,
2013-02-06 05:56:00,30.2,23.9,30.04,North,0,0.0,0.0,77,0.00,CLR,,0.00,WeatherDisplay:10.37,2013-02-06 10:56:00,
2013-02-06 05:57:00,30.2,23.9,30.04,North,0,0.0,0.0,77,0.00,CLR,,0.00,WeatherDisplay:10.37,2013-02-06 10:57:00,
2013-02-06 05:58:00,30.2,23.9,30.04,North,0,0.0,0.0,77,0.00,CLR,,0.00,WeatherDisplay:10.37,2013-02-06 10:58:00,
2013-02-06 06:00:00,30.2,23.9,30.04,North,0,0.0,0.0,77,0.00,CLR,,0.00,WeatherDisplay:10.37,2013-02-06 11:00:00,
2013-02-06 06:01:00,30.4,24.0,30.05,ENE,68,0.2,0.2,77,0.00,CLR,,0.00,WeatherDisplay:10.37,2013-02-06 11:01:00,
2013-02-06 06:03:00,30.4,24.0,30.05,ENE,68,0.0,0.2,77,0.00,CLR,,0.00,WeatherDisplay:10.37,2013-02-06 11:03:00,
2013-02-06 06:05:00,30.4,24.0,30.05,North,9,0.0,0.0,77,0.00,CLR,,0.00,WeatherDisplay:10.37,2013-02-06 11:05:00,
2013-02-06 06:07:00,30.4,24.0,30.05,ENE,68,0.0,0.2,77,0.00,CLR,,0.00,WeatherDisplay:10.37,2013-02-06 11:07:00,
2013-02-06 06:08:00,30.4,24.0,30.05,ENE,68,0.0,0.2,77,0.00,CLR,,0.00,WeatherDisplay:10.37,2013-02-06 11:08:00,
2013-02-06 06:10:00,30.4,24.0,30.05,ENE,68,0.0,0.2,77,0.00,CLR,,0.00,WeatherDisplay:10.37,2013-02-06 11:10:00,
2013-02-06 06:13:00,30.4,24.0,30.05,ENE,68,0.0,0.2,77,0.00,CLR,,0.00,WeatherDisplay:10.37,2013-02-06 11:13:00,
2013-02-06 06:15:00,30.4,24.0,30.05,ENE,68,0.0,0.2,77,0.00,CLR,,0.00,WeatherDisplay:10.37,2013-02-06 11:15:00,
2013-02-06 06:18:00,30.4,24.0,30.05,ENE,68,0.0,0.2,77,0.00,CLR,,0.00,WeatherDisplay:10.37,2013-02-06 11:18:00,
2013-02-06 06:20:00,30.4,24.0,30.05,ENE,68,0.2,0.2,77,0.00,CLR,,0.00,WeatherDisplay:10.37,2013-02-06 11:20:00,
2013-02-06 06:23:00,30.4,24.0,30.05,ENE,68,0.0,0.2,77,0.00,CLR,,0.00,WeatherDisplay:10.37,2013-02-06 11:23:00,
2013-02-06 06:25:00,30.4,24.0,30.05,ENE,68,0.0,0.2,77,0.00,CLR,,0.00,WeatherDisplay:10.37,2013-02-06 11:25:00,
2013-02-06 06:28:00,30.4,24.0,30.05,ENE,68,0.0,0.2,77,0.00,CLR,,0.00,WeatherDisplay:10.37,2013-02-06 11:28:00,
2013-02-06 06:30:00,29.8,23.8,30.06,NNW,338,0.0,0.5,78,0.00,CLR,,0.00,WeatherDisplay:10.37,2013-02-06 11:30:00,
2013-02-06 06:33:00,29.8,23.8,30.06,NNW,338,0.0,0.5,78,0.00,CLR,,0.00,WeatherDisplay:10.37,2013-02-06 11:33:00,
2013-02-06 06:36:00,29.8,23.8,30.06,NNW,338,0.0,0.5,78,0.00,CLR,,0.00,WeatherDisplay:10.37,2013-02-06 11:36:00,
2013-02-06 06:38:00,29.8,23.8,30.06,NNW,338,0.0,0.5,78,0.00,CLR,,0.00,WeatherDisplay:10.37,2013-02-06 11:38:00,
2013-02-06 06:39:00,29.8,23.8,30.06,NNW,338,0.0,0.5,78,0.00,CLR,,0.00,WeatherDisplay:10.37,2013-02-06 11:39:00,
2013-02-06 06:41:00,29.8,23.8,30.06,NNW,338,0.0,0.5,78,0.00,CLR,,0.00,WeatherDisplay:10.37,2013-02-06 11:41:00,
2013-02-06 06:43:00,29.8,23.8,30.06,NNW,338,0.5,0.5,78,0.00,CLR,,0.00,WeatherDisplay:10.37,2013-02-06 11:43:00,
2013-02-06 06:44:00,29.8,23.8,30.06,NNW,338,0.0,0.5,78,0.00,CLR,,0.00,WeatherDisplay:10.37,2013-02-06 11:44:00,
2013-02-06 06:46:00,29.8,23.8,30.06,NNW,338,0.5,0.5,78,0.00,CLR,,0.00,WeatherDisplay:10.37,2013-02-06 11:46:00,
2013-02-06 06:48:00,29.8,23.8,30.06,NNW,338,0.0,0.5,78,0.00,CLR,,0.00,WeatherDisplay:10.37,2013-02-06 11:48:00,
2013-02-06 06:49:00,29.8,23.8,30.06,NNW,338,0.0,0.5,78,0.00,CLR,,0.00,WeatherDisplay:10.37,2013-02-06 11:49:00,
2013-02-06 06:51:00,29.8,23.8,30.06,NNW,338,0.0,0.5,78,0.00,CLR,,0.00,WeatherDisplay:10.37,2013-02-06 11:51:00,
2013-02-06 06:53:00,29.8,23.8,30.06,NNW,338,0.0,0.5,78,0.00,CLR,,0.00,WeatherDisplay:10.37,2013-02-06 11:53:00,
2013-02-06 06:54:00,29.8,23.8,30.06,NNW,338,0.0,0.5,78,0.00,CLR,,0.00,WeatherDisplay:10.37,2013-02-06 11:54:00,
2013-02-06 06:56:00,29.8,23.8,30.06,NNW,338,0.0,0.5,78,0.00,CLR,,0.00,WeatherDisplay:10.37,2013-02-06 11:56:00,
2013-02-06 06:59:00,29.8,23.8,30.06,NNW,338,0.0,0.5,78,0.00,CLR,,0.00,WeatherDisplay:10.37,2013-02-06 11:59:00,
2013-02-06 07:01:00,29.8,23.8,30.06,ESE,112,0.0,0.0,78,0.00,CLR,,0.00,WeatherDisplay:10.37,2013-02-06 12:01:00,
2013-02-06 07:04:00,29.8,23.8,30.06,ESE,112,0.0,0.0,78,0.00,CLR,,0.00,WeatherDisplay:10.37,2013-02-06 12:04:00,
2013-02-06 07:06:00,29.8,23.8,30.06,ESE,112,0.0,0.0,78,0.00,CLR,,0.00,WeatherDisplay:10.37,2013-02-06 12:06:00,
2013-02-06 07:09:00,29.8,23.8,30.06,ESE,112,0.0,0.0,78,0.00,CLR,,0.00,WeatherDisplay:10.37,2013-02-06 12:09:00,
2013-02-06 07:11:00,29.8,23.8,30.06,ESE,112,0.0,0.0,78,0.00,CLR,,0.00,WeatherDisplay:10.37,2013-02-06 12:11:00,
2013-02-06 07:14:00,29.8,23.8,30.06,ESE,112,0.0,0.0,78,0.00,CLR,,0.00,WeatherDisplay:10.37,2013-02-06 12:14:00,
2013-02-06 07:17:00,29.8,23.8,30.06,ESE,112,0.0,0.0,78,0.00,CLR,,0.00,WeatherDisplay:10.37,2013-02-06 12:17:00,
2013-02-06 07:19:00,29.8,23.8,30.06,ESE,112,0.0,0.0,78,0.00,CLR,,0.00,WeatherDisplay:10.37,2013-02-06 12:19:00,
2013-02-06 07:22:00,29.8,23.8,30.06,ESE,112,0.0,0.0,78,0.00,CLR,,0.00,WeatherDisplay:10.37,2013-02-06 12:22:00,
2013-02-06 07:24:00,29.8,23.8,30.06,ESE,112,0.0,0.0,78,0.00,CLR,,0.00,WeatherDisplay:10.37,2013-02-06 12:24:00,
2013-02-06 07:27:00,29.8,23.8,30.06,ESE,112,0.0,0.0,78,0.00,CLR,,0.00,WeatherDisplay:10.37,2013-02-06 12:27:00,
2013-02-06 07:29:00,29.8,23.8,30.06,ESE,112,0.0,0.0,78,0.00,CLR,,0.00,WeatherDisplay:10.37,2013-02-06 12:29:00,
2013-02-06 07:30:00,29.8,23.8,30.06,ESE,112,0.0,0.0,78,0.00,CLR,,0.00,WeatherDisplay:10.37,2013-02-06 12:30:00,
2013-02-06 07:32:00,29.8,23.5,30.07,East,90,0.0,0.0,77,0.00,CLR,,0.00,WeatherDisplay:10.37,2013-02-06 12:32:00,
2013-02-06 07:34:00,29.8,23.5,30.07,East,90,0.0,0.0,77,0.00,CLR,,0.00,WeatherDisplay:10.37,2013-02-06 12:34:00,
2013-02-06 07:35:00,29.8,23.5,30.07,East,90,0.0,0.0,77,0.00,CLR,,0.00,WeatherDisplay:10.37,2013-02-06 12:35:00,
2013-02-06 07:37:00,29.8,23.5,30.07,East,90,0.0,0.0,77,0.00,CLR,,0.00,WeatherDisplay:10.37,2013-02-06 12:37:00,
2013-02-06 07:40:00,29.8,23.5,30.07,East,90,0.0,0.0,77,0.00,CLR,,0.00,WeatherDisplay:10.37,2013-02-06 12:40:00,
2013-02-06 07:42:00,29.8,23.5,30.07,East,90,0.0,0.0,77,0.00,CLR,,0.00,WeatherDisplay:10.37,2013-02-06 12:42:00,
2013-02-06 07:45:00,29.8,23.5,30.07,East,90,0.0,0.0,77,0.00,CLR,,0.00,WeatherDisplay:10.37,2013-02-06 12:45:00,
2013-02-06 07:47:00,29.8,23.5,30.07,East,90,0.0,0.0,77,0.00,CLR,,0.00,WeatherDisplay:10.37,2013-02-06 12:47:00,
2013-02-06 07:50:00,29.8,23.5,30.07,East,90,0.0,0.0,77,0.00,CLR,,0.00,WeatherDisplay:10.37,2013-02-06 12:50:00,
2013-02-06 07:52:00,29.8,23.5,30.07,East,90,0.0,0.0,77,0.00,CLR,,0.00,WeatherDisplay:10.37,2013-02-06 12:52:00,
2013-02-06 07:55:00,29.8,23.5,30.07,East,90,0.0,0.0,77,0.00,CLR,,0.00,WeatherDisplay:10.37,2013-02-06 12:55:00,
2013-02-06 07:58:00,29.8,23.5,30.07,East,90,0.0,0.0,77,0.00,CLR,,0.00,WeatherDisplay:10.37,2013-02-06 12:58:00,
2013-02-06 08:00:00,30.0,24.0,30.08,WNW,292,0.0,0.7,78,0.00,CLR,,0.00,WeatherDisplay:10.37,2013-02-06 13:00:00,
2013-02-06 08:01:00,30.0,24.0,30.08,WNW,292,0.0,0.7,78,0.00,CLR,,0.00,WeatherDisplay:10.37,2013-02-06 13:01:00,
2013-02-06 08:03:00,30.0,24.0,30.08,WNW,292,1.1,1.1,78,0.00,CLR,,0.00,WeatherDisplay:10.37,2013-02-06 13:03:00,
2013-02-06 08:06:00,30.0,24.0,30.08,WNW,292,1.1,1.1,78,0.00,CLR,,0.00,WeatherDisplay:10.37,2013-02-06 13:06:00,
2013-02-06 08:07:00,30.0,24.0,30.08,WNW,292,1.1,1.1,78,0.00,CLR,,0.00,WeatherDisplay:10.37,2013-02-06 13:07:00,
2013-02-06 08:08:00,30.0,24.0,30.08,WNW,292,1.1,1.1,78,0.00,CLR,,0.00,WeatherDisplay:10.37,2013-02-06 13:08:00,
2013-02-06 08:11:00,30.0,24.0,30.08,WNW,292,1.1,1.1,78,0.00,CLR,,0.00,WeatherDisplay:10.37,2013-02-06 13:11:00,
2013-02-06 08:12:00,30.0,24.0,30.08,WNW,292,1.1,1.1,78,0.00,CLR,,0.00,WeatherDisplay:10.37,2013-02-06 13:12:00,
2013-02-06 08:13:00,30.0,24.0,30.08,WNW,292,1.1,1.1,78,0.00,CLR,,0.00,WeatherDisplay:10.37,2013-02-06 13:13:00,
2013-02-06 08:16:00,30.0,24.0,30.08,WNW,292,1.1,1.1,78,0.00,CLR,,0.00,WeatherDisplay:10.37,2013-02-06 13:16:00,
2013-02-06 08:17:00,30.0,24.0,30.08,WNW,292,1.1,1.1,78,0.00,CLR,,0.00,WeatherDisplay:10.37,2013-02-06 13:17:00,
2013-02-06 08:19:00,30.0,24.0,30.08,WNW,292,1.1,1.1,78,0.00,CLR,,0.00,WeatherDisplay:10.37,2013-02-06 13:19:00,
2013-02-06 08:21:00,30.0,24.0,30.08,WNW,292,1.1,1.1,78,0.00,CLR,,0.00,WeatherDisplay:10.37,2013-02-06 13:21:00,
2013-02-06 08:22:00,30.0,24.0,30.08,WNW,292,1.1,1.1,78,0.00,CLR,,0.00,WeatherDisplay:10.37,2013-02-06 13:22:00,
2013-02-06 08:24:00,30.0,24.0,30.08,WNW,292,1.1,1.1,78,0.00,CLR,,0.00,WeatherDisplay:10.37,2013-02-06 13:24:00,
2013-02-06 08:26:00,30.0,24.0,30.08,WNW,292,1.1,1.1,78,0.00,CLR,,0.00,WeatherDisplay:10.37,2013-02-06 13:26:00,
2013-02-06 08:28:00,30.0,24.0,30.08,WNW,292,1.1,1.1,78,0.00,CLR,,0.00,WeatherDisplay:10.37,2013-02-06 13:28:00,
2013-02-06 08:29:00,30.0,24.0,30.08,WNW,292,1.1,1.1,78,0.00,CLR,,0.00,WeatherDisplay:10.37,2013-02-06 13:29:00,
2013-02-06 08:31:00,29.7,23.3,30.09,ENE,68,1.1,0.0,77,0.00,CLR,,0.00,WeatherDisplay:10.37,2013-02-06 13:31:00,
2013-02-06 08:32:00,29.7,23.3,30.09,ENE,68,1.1,0.0,77,0.00,CLR,,0.00,WeatherDisplay:10.37,2013-02-06 13:32:00,
2013-02-06 08:33:00,29.7,23.3,30.09,ENE,68,0.0,0.0,77,0.00,CLR,,0.00,WeatherDisplay:10.37,2013-02-06 13:33:00,
2013-02-06 08:35:00,29.7,23.3,30.09,ENE,68,0.0,0.0,77,0.00,CLR,,0.00,WeatherDisplay:10.37,2013-02-06 13:35:00,
2013-02-06 08:36:00,29.7,23.3,30.09,ENE,68,0.0,0.0,77,0.00,CLR,,0.00,WeatherDisplay:10.37,2013-02-06 13:36:00,
2013-02-06 08:37:00,29.7,23.3,30.09,ENE,68,0.0,0.0,77,0.00,CLR,,0.00,WeatherDisplay:10.37,2013-02-06 13:37:00,
2013-02-06 08:38:00,29.7,23.3,30.09,ENE,68,0.0,0.0,77,0.00,CLR,,0.00,WeatherDisplay:10.37,2013-02-06 13:38:00,
2013-02-06 08:40:00,29.7,23.3,30.09,ENE,68,0.0,0.0,77,0.00,CLR,,0.00,WeatherDisplay:10.37,2013-02-06 13:40:00,
2013-02-06 08:41:00,29.7,23.3,30.09,ENE,68,0.0,0.0,77,0.00,CLR,,0.00,WeatherDisplay:10.37,2013-02-06 13:41:00,
2013-02-06 08:42:00,29.7,23.3,30.09,ENE,68,0.0,0.0,77,0.00,CLR,,0.00,WeatherDisplay:10.37,2013-02-06 13:42:00,
2013-02-06 08:43:00,29.7,23.3,30.09,ENE,68,0.0,0.0,77,0.00,CLR,,0.00,WeatherDisplay:10.37,2013-02-06 13:43:00,
2013-02-06 08:45:00,29.7,23.3,30.09,ENE,68,0.0,0.0,77,0.00,CLR,,0.00,WeatherDisplay:10.37,2013-02-06 13:45:00,
2013-02-06 08:47:00,29.7,23.3,30.09,ENE,68,0.0,0.0,77,0.00,CLR,,0.00,WeatherDisplay:10.37,2013-02-06 13:47:00,
2013-02-06 08:48:00,29.7,23.3,30.09,ENE,68,0.0,0.0,77,0.00,CLR,,0.00,WeatherDisplay:10.37,2013-02-06 13:48:00,
2013-02-06 08:50:00,29.7,23.3,30.09,ENE,68,0.0,0.0,77,0.00,CLR,,0.00,WeatherDisplay:10.37,2013-02-06 13:50:00,
2013-02-06 08:52:00,29.7,23.3,30.09,ENE,68,0.0,0.0,77,0.00,CLR,,0.00,WeatherDisplay:10.37,2013-02-06 13:52:00,
2013-02-06 08:53:00,29.7,23.3,30.09,ENE,68,0.0,0.0,77,0.00,CLR,,0.00,WeatherDisplay:10.37,2013-02-06 13:53:00,
2013-02-06 08:56:00,29.7,23.3,30.09,ENE,68,0.0,0.0,77,0.00,CLR,,0.00,WeatherDisplay:10.37,2013-02-06 13:56:00,
2013-02-06 08:57:00,29.7,23.3,30.09,ENE,68,0.0,0.0,77,0.00,CLR,,0.00,WeatherDisplay:10.37,2013-02-06 13:57:00,
2013-02-06 08:58:00,29.7,23.3,30.09,ENE,68,0.0,0.0,77,0.00,CLR,,0.00,WeatherDisplay:10.37,2013-02-06 13:58:00,
2013-02-06 09:01:00,30.6,24.5,30.11,ESE,112,0.0,0.0,78,0.00,CLR,,0.00,WeatherDisplay:10.37,2013-02-06 14:01:00,
2013-02-06 09:02:00,30.6,24.5,30.11,ESE,112,0.0,0.0,78,0.00,CLR,,0.00,WeatherDisplay:10.37,2013-02-06 14:02:00,
2013-02-06 09:03:00,30.6,24.5,30.11,ESE,112,0.0,0.0,78,0.00,CLR,,0.00,WeatherDisplay:10.37,2013-02-06 14:03:00,
2013-02-06 09:06:00,30.6,24.5,30.11,ESE,112,0.0,0.0,78,0.00,CLR,,0.00,WeatherDisplay:10.37,2013-02-06 14:06:00,
2013-02-06 09:07:00,30.6,24.5,30.11,ESE,112,0.0,0.0,78,0.00,CLR,,0.00,WeatherDisplay:10.37,2013-02-06 14:07:00,
2013-02-06 09:08:00,30.6,24.5,30.11,ESE,112,0.0,0.0,78,0.00,CLR,,0.00,WeatherDisplay:10.37,2013-02-06 14:08:00,
2013-02-06 09:11:00,30.6,24.5,30.11,ESE,112,0.0,0.0,78,0.00,CLR,,0.00,WeatherDisplay:10.37,2013-02-06 14:11:00,
2013-02-06 09:13:00,30.6,24.5,30.11,ESE,112,0.0,0.0,78,0.00,CLR,,0.00,WeatherDisplay:10.37,2013-02-06 14:13:00,
2013-02-06 09:14:00,30.6,24.5,30.11,ESE,112,0.0,0.0,78,0.00,CLR,,0.00,WeatherDisplay:10.37,2013-02-06 14:14:00,
2013-02-06 09:16:00,30.6,24.5,30.11,ESE,112,0.0,0.0,78,0.00,CLR,,0.00,WeatherDisplay:10.37,2013-02-06 14:16:00,
2013-02-06 09:18:00,30.6,24.5,30.11,ESE,112,0.0,0.0,78,0.00,CLR,,0.00,WeatherDisplay:10.37,2013-02-06 14:18:00,
2013-02-06 09:19:00,30.6,24.5,30.11,ESE,112,0.0,0.0,78,0.00,CLR,,0.00,WeatherDisplay:10.37,2013-02-06 14:19:00,
2013-02-06 09:21:00,30.6,24.5,30.11,ESE,112,0.0,0.0,78,0.00,CLR,,0.00,WeatherDisplay:10.37,2013-02-06 14:21:00,
2013-02-06 09:23:00,30.6,24.5,30.11,ESE,112,0.0,0.0,78,0.00,CLR,,0.00,WeatherDisplay:10.37,2013-02-06 14:23:00,
2013-02-06 09:24:00,30.6,24.5,30.11,ESE,112,0.0,0.0,78,0.00,CLR,,0.00,WeatherDisplay:10.37,2013-02-06 14:24:00,
2013-02-06 09:27:00,30.6,24.5,30.11,ESE,112,0.0,0.0,78,0.00,CLR,,0.00,WeatherDisplay:10.37,2013-02-06 14:27:00,
2013-02-06 09:28:00,30.6,24.5,30.11,ESE,112,0.0,0.0,78,0.00,CLR,,0.00,WeatherDisplay:10.37,2013-02-06 14:28:00,
2013-02-06 09:30:00,30.6,24.5,30.11,ESE,112,0.0,0.0,78,0.00,CLR,,0.00,WeatherDisplay:10.37,2013-02-06 14:30:00,
2013-02-06 09:32:00,31.8,25.4,30.14,SSE,158,1.1,1.1,77,0.00,CLR,,0.00,WeatherDisplay:10.37,2013-02-06 14:32:00,
2013-02-06 09:33:00,31.8,25.4,30.14,SSE,158,1.1,1.1,77,0.00,CLR,,0.00,WeatherDisplay:10.37,2013-02-06 14:33:00,
2013-02-06 09:34:00,31.8,25.4,30.14,SSE,158,1.1,1.1,77,0.00,CLR,,0.00,WeatherDisplay:10.37,2013-02-06 14:34:00,
2013-02-06 09:35:00,31.8,25.4,30.14,SSE,158,1.1,1.1,77,0.00,CLR,,0.00,WeatherDisplay:10.37,2013-02-06 14:35:00,
2013-02-06 09:37:00,31.8,25.4,30.14,SSE,158,1.1,1.1,77,0.00,CLR,,0.00,WeatherDisplay:10.37,2013-02-06 14:37:00,
2013-02-06 09:38:00,31.8,25.4,30.14,SSE,158,1.1,1.1,77,0.00,CLR,,0.00,WeatherDisplay:10.37,2013-02-06 14:38:00,
2013-02-06 09:39:00,31.8,25.4,30.14,SSE,158,1.1,1.1,77,0.00,CLR,,0.00,WeatherDisplay:10.37,2013-02-06 14:39:00,
2013-02-06 09:40:00,31.8,25.4,30.14,SSE,158,1.1,1.1,77,0.00,CLR,,0.00,WeatherDisplay:10.37,2013-02-06 14:40:00,
2013-02-06 09:42:00,31.8,25.4,30.14,SSE,158,1.1,1.1,77,0.00,CLR,,0.00,WeatherDisplay:10.37,2013-02-06 14:42:00,
2013-02-06 09:43:00,31.8,25.4,30.14,SSE,158,1.1,1.1,77,0.00,CLR,,0.00,WeatherDisplay:10.37,2013-02-06 14:43:00,
2013-02-06 09:44:00,31.8,25.4,30.14,SSE,158,1.1,1.1,77,0.00,CLR,,0.00,WeatherDisplay:10.37,2013-02-06 14:44:00,
2013-02-06 09:45:00,31.8,25.4,30.14,SSE,158,1.1,1.1,77,0.00,CLR,,0.00,WeatherDisplay:10.37,2013-02-06 14:45:00,
2013-02-06 09:47:00,31.8,25.4,30.14,SSE,158,1.1,1.1,77,0.00,CLR,,0.00,WeatherDisplay:10.37,2013-02-06 14:47:00,
2013-02-06 09:48:00,31.8,25.4,30.14,SSE,158,1.1,1.1,77,0.00,CLR,,0.00,WeatherDisplay:10.37,2013-02-06 14:48:00,
2013-02-06 09:49:00,31.8,25.4,30.14,SSE,158,1.1,1.1,77,0.00,CLR,,0.00,WeatherDisplay:10.37,2013-02-06 14:49:00,
2013-02-06 09:51:00,31.8,25.4,30.14,SSE,158,1.1,1.1,77,0.00,CLR,,0.00,WeatherDisplay:10.37,2013-02-06 14:51:00,
2013-02-06 09:52:00,31.8,25.4,30.14,SSE,158,1.1,1.1,77,0.00,CLR,,0.00,WeatherDisplay:10.37,2013-02-06 14:52:00,
2013-02-06 09:53:00,31.8,25.4,30.14,SSE,158,1.1,1.1,77,0.00,CLR,,0.00,WeatherDisplay:10.37,2013-02-06 14:53:00,
2013-02-06 09:54:00,31.8,25.4,30.14,SSE,158,1.1,1.1,77,0.00,CLR,,0.00,WeatherDisplay:10.37,2013-02-06 14:54:00,
2013-02-06 09:56:00,31.8,25.4,30.14,SSE,158,1.1,1.1,77,0.00,CLR,,0.00,WeatherDisplay:10.37,2013-02-06 14:56:00,
2013-02-06 09:57:00,31.8,25.4,30.14,SSE,158,1.1,1.1,77,0.00,CLR,,0.00,WeatherDisplay:10.37,2013-02-06 14:57:00,
2013-02-06 09:58:00,31.8,25.4,30.14,SSE,158,1.1,1.1,77,0.00,CLR,,0.00,WeatherDisplay:10.37,2013-02-06 14:58:00,
2013-02-06 09:59:00,31.8,25.4,30.14,SSE,158,1.1,1.1,77,0.00,CLR,,0.00,WeatherDisplay:10.37,2013-02-06 14:59:00,
2013-02-06 10:01:00,32.9,25.8,30.11,ENE,68,1.1,1.1,75,0.00,CLR,,0.00,WeatherDisplay:10.37,2013-02-06 15:01:00,
2013-02-06 10:03:00,32.9,25.8,30.11,ENE,68,1.1,1.1,75,0.00,CLR,,0.00,WeatherDisplay:10.37,2013-02-06 15:03:00,
2013-02-06 10:04:00,32.9,25.8,30.11,ENE,68,1.1,1.1,75,0.00,CLR,,0.00,WeatherDisplay:10.37,2013-02-06 15:04:00,
2013-02-06 10:06:00,32.9,25.8,30.11,ENE,68,1.1,1.1,75,0.00,CLR,,0.00,WeatherDisplay:10.37,2013-02-06 15:06:00,
2013-02-06 10:08:00,32.9,25.8,30.11,ENE,68,1.1,1.1,75,0.00,CLR,,0.00,WeatherDisplay:10.37,2013-02-06 15:08:00,
2013-02-06 10:09:00,32.9,25.8,30.11,ENE,68,1.1,1.1,75,0.00,CLR,,0.00,WeatherDisplay:10.37,2013-02-06 15:09:00,
2013-02-06 10:11:00,32.9,25.8,30.11,ENE,68,1.1,1.1,75,0.00,CLR,,0.00,WeatherDisplay:10.37,2013-02-06 15:11:00,
2013-02-06 10:13:00,32.9,25.8,30.11,ENE,68,1.1,1.1,75,0.00,CLR,,0.00,WeatherDisplay:10.37,2013-02-06 15:13:00,
2013-02-06 10:14:00,32.9,25.8,30.11,ENE,68,1.1,1.1,75,0.00,CLR,,0.00,WeatherDisplay:10.37,2013-02-06 15:14:00,
2013-02-06 10:16:00,32.9,25.8,30.11,ENE,68,1.1,1.1,75,0.00,CLR,,0.00,WeatherDisplay:10.37,2013-02-06 15:16:00,
2013-02-06 10:18:00,32.9,25.8,30.11,ENE,68,1.1,1.1,75,0.00,CLR,,0.00,WeatherDisplay:10.37,2013-02-06 15:18:00,
2013-02-06 10:19:00,32.9,25.8,30.11,ENE,68,1.1,1.1,75,0.00,CLR,,0.00,WeatherDisplay:10.37,2013-02-06 15:19:00,
2013-02-06 10:21:00,32.9,25.8,30.11,ENE,68,1.1,1.1,75,0.00,CLR,,0.00,WeatherDisplay:10.37,2013-02-06 15:21:00,
2013-02-06 10:23:00,32.9,25.8,30.11,ENE,68,1.1,1.1,75,0.00,CLR,,0.00,WeatherDisplay:10.37,2013-02-06 15:23:00,
2013-02-06 10:24:00,32.9,25.8,30.11,ENE,68,1.1,1.1,75,0.00,CLR,,0.00,WeatherDisplay:10.37,2013-02-06 15:24:00,
2013-02-06 10:25:00,32.9,25.8,30.11,ENE,68,1.1,1.1,75,0.00,CLR,,0.00,WeatherDisplay:10.37,2013-02-06 15:25:00,
2013-02-06 10:26:00,32.9,25.8,30.11,ENE,68,1.1,1.1,75,0.00,CLR,,0.00,WeatherDisplay:10.37,2013-02-06 15:26:00,
2013-02-06 10:28:00,32.9,25.8,30.11,ENE,68,1.1,1.1,75,0.00,CLR,,0.00,WeatherDisplay:10.37,2013-02-06 15:28:00,
2013-02-06 10:29:00,32.9,25.8,30.11,ENE,68,1.1,1.1,75,0.00,CLR,,0.00,WeatherDisplay:10.37,2013-02-06 15:29:00,
2013-02-06 10:30:00,32.9,25.8,30.11,ENE,68,1.0,1.0,75,0.00,CLR,,0.00,WeatherDisplay:10.37,2013-02-06 15:30:00,
2013-02-06 10:31:00,34.5,26.8,30.14,ESE,112,1.1,1.4,73,0.00,CLR,,0.00,WeatherDisplay:10.37,2013-02-06 15:31:00,
2013-02-06 10:33:00,34.5,26.8,30.14,ESE,112,1.1,1.4,73,0.00,CLR,,0.00,WeatherDisplay:10.37,2013-02-06 15:33:00,
2013-02-06 10:34:00,34.5,26.8,30.14,ESE,112,1.1,1.4,73,0.00,CLR,,0.00,WeatherDisplay:10.37,2013-02-06 15:34:00,
2013-02-06 10:35:00,34.5,26.8,30.14,ESE,112,1.1,1.4,73,0.00,CLR,,0.00,WeatherDisplay:10.37,2013-02-06 15:35:00,
2013-02-06 10:37:00,34.5,26.8,30.14,ESE,112,1.1,1.4,73,0.00,CLR,,0.00,WeatherDisplay:10.37,2013-02-06 15:37:00,
2013-02-06 10:38:00,34.5,26.8,30.14,ESE,112,1.1,1.4,73,0.00,CLR,,0.00,WeatherDisplay:10.37,2013-02-06 15:38:00,
2013-02-06 10:39:00,34.5,26.8,30.14,ESE,112,1.4,1.4,73,0.00,CLR,,0.00,WeatherDisplay:10.37,2013-02-06 15:39:00,
2013-02-06 10:40:00,34.5,26.8,30.14,ESE,112,1.1,1.4,73,0.00,CLR,,0.00,WeatherDisplay:10.37,2013-02-06 15:40:00,
2013-02-06 10:42:00,34.5,26.8,30.14,ESE,112,1.1,1.4,73,0.00,CLR,,0.00,WeatherDisplay:10.37,2013-02-06 15:42:00,
2013-02-06 10:43:00,34.5,26.8,30.14,ESE,112,1.4,1.4,73,0.00,CLR,,0.00,WeatherDisplay:10.37,2013-02-06 15:43:00,
2013-02-06 10:44:00,34.5,26.8,30.14,ESE,112,1.1,1.4,73,0.00,CLR,,0.00,WeatherDisplay:10.37,2013-02-06 15:44:00,
2013-02-06 10:45:00,34.5,26.8,30.14,ESE,112,1.1,1.4,73,0.00,CLR,,0.00,WeatherDisplay:10.37,2013-02-06 15:45:00,
2013-02-06 10:47:00,34.5,26.8,30.14,ESE,112,1.1,1.4,73,0.00,CLR,,0.00,WeatherDisplay:10.37,2013-02-06 15:47:00,
2013-02-06 10:48:00,34.5,26.8,30.14,ESE,112,1.1,1.4,73,0.00,CLR,,0.00,WeatherDisplay:10.37,2013-02-06 15:48:00,
2013-02-06 10:49:00,34.5,26.8,30.14,ESE,112,1.1,1.4,73,0.00,CLR,,0.00,WeatherDisplay:10.37,2013-02-06 15:49:00,
2013-02-06 10:51:00,34.5,26.8,30.14,ESE,112,1.1,1.4,73,0.00,CLR,,0.00,WeatherDisplay:10.37,2013-02-06 15:51:00,
2013-02-06 10:52:00,34.5,26.8,30.14,ESE,112,1.1,1.4,73,0.00,CLR,,0.00,WeatherDisplay:10.37,2013-02-06 15:52:00,
2013-02-06 10:54:00,34.5,26.8,30.14,ESE,112,1.1,1.4,73,0.00,CLR,,0.00,WeatherDisplay:10.37,2013-02-06 15:54:00,
2013-02-06 10:55:00,34.5,26.8,30.14,ESE,112,1.1,1.4,73,0.00,CLR,,0.00,WeatherDisplay:10.37,2013-02-06 15:55:00,
2013-02-06 10:56:00,34.5,26.8,30.14,ESE,112,1.1,1.4,73,0.00,CLR,,0.00,WeatherDisplay:10.37,2013-02-06 15:56:00,
2013-02-06 10:57:00,34.5,26.8,30.14,ESE,112,1.1,1.4,73,0.00,CLR,,0.00,WeatherDisplay:10.37,2013-02-06 15:57:00,
2013-02-06 10:59:00,34.5,26.8,30.14,ESE,112,1.1,1.4,73,0.00,CLR,,0.00,WeatherDisplay:10.37,2013-02-06 15:59:00,
2013-02-06 11:00:00,34.5,26.8,30.14,ESE,112,1.1,1.4,73,0.00,CLR,,0.00,WeatherDisplay:10.37,2013-02-06 16:00:00,
2013-02-06 11:01:00,36.1,27.3,30.14,East,90,1.1,1.4,70,0.00,CLR,,0.00,WeatherDisplay:10.37,2013-02-06 16:01:00,
2013-02-06 11:02:00,36.1,27.3,30.14,East,90,1.1,1.4,70,0.00,CLR,,0.00,WeatherDisplay:10.37,2013-02-06 16:02:00,
2013-02-06 11:04:00,36.1,27.3,30.14,East,90,1.1,1.4,70,0.00,CLR,,0.00,WeatherDisplay:10.37,2013-02-06 16:04:00,
2013-02-06 11:05:00,36.1,27.3,30.14,East,90,1.1,1.4,70,0.00,CLR,,0.00,WeatherDisplay:10.37,2013-02-06 16:05:00,
2013-02-06 11:06:00,36.1,27.3,30.14,East,90,1.1,1.4,70,0.00,CLR,,0.00,WeatherDisplay:10.37,2013-02-06 16:06:00,
2013-02-06 11:07:00,36.1,27.3,30.14,East,90,1.1,1.4,70,0.00,CLR,,0.00,WeatherDisplay:10.37,2013-02-06 16:07:00,
2013-02-06 11:09:00,36.1,27.3,30.14,East,90,1.1,1.4,70,0.00,CLR,,0.00,WeatherDisplay:10.37,2013-02-06 16:09:00,
2013-02-06 11:10:00,36.1,27.3,30.14,East,90,1.1,1.4,70,0.00,CLR,,0.00,WeatherDisplay:10.37,2013-02-06 16:10:00,
2013-02-06 11:11:00,36.1,27.3,30.14,East,90,1.1,1.4,70,0.00,CLR,,0.00,WeatherDisplay:10.37,2013-02-06 16:11:00,
2013-02-06 11:12:00,36.1,27.3,30.14,East,90,1.4,1.4,70,0.00,CLR,,0.00,WeatherDisplay:10.37,2013-02-06 16:12:00,
2013-02-06 11:14:00,36.1,27.3,30.14,East,90,1.1,1.4,70,0.00,CLR,,0.00,WeatherDisplay:10.37,2013-02-06 16:14:00,
2013-02-06 11:15:00,36.1,27.3,30.14,East,90,1.1,1.4,70,0.00,CLR,,0.00,WeatherDisplay:10.37,2013-02-06 16:15:00,
2013-02-06 11:16:00,36.1,27.3,30.14,East,90,1.1,1.4,70,0.00,CLR,,0.00,WeatherDisplay:10.37,2013-02-06 16:16:00,
2013-02-06 11:17:00,36.1,27.3,30.14,East,90,1.1,1.4,70,0.00,CLR,,0.00,WeatherDisplay:10.37,2013-02-06 16:17:00,
2013-02-06 11:19:00,36.1,27.3,30.14,East,90,1.4,1.4,70,0.00,CLR,,0.00,WeatherDisplay:10.37,2013-02-06 16:19:00,
2013-02-06 11:20:00,36.1,27.3,30.14,East,90,1.1,1.4,70,0.00,CLR,,0.00,WeatherDisplay:10.37,2013-02-06 16:20:00,
2013-02-06 11:22:00,36.1,27.3,30.14,East,90,1.1,1.4,70,0.00,CLR,,0.00,WeatherDisplay:10.37,2013-02-06 16:22:00,
2013-02-06 11:23:00,36.1,27.3,30.14,East,90,1.4,1.4,70,0.00,CLR,,0.00,WeatherDisplay:10.37,2013-02-06 16:23:00,
2013-02-06 11:25:00,36.1,27.3,30.14,East,90,1.1,1.4,70,0.00,CLR,,0.00,WeatherDisplay:10.37,2013-02-06 16:25:00,
2013-02-06 11:26:00,36.1,27.3,30.14,East,90,1.1,1.4,70,0.00,CLR,,0.00,WeatherDisplay:10.37,2013-02-06 16:26:00,
2013-02-06 11:27:00,36.1,27.3,30.14,East,90,1.1,1.4,70,0.00,CLR,,0.00,WeatherDisplay:10.37,2013-02-06 16:27:00,
2013-02-06 11:28:00,36.1,27.3,30.14,East,90,1.1,1.4,70,0.00,CLR,,0.00,WeatherDisplay:10.37,2013-02-06 16:28:00,
2013-02-06 11:30:00,36.1,27.3,30.14,East,90,1.1,1.4,70,0.00,CLR,,0.00,WeatherDisplay:10.37,2013-02-06 16:30:00,
2013-02-06 11:31:00,36.9,26.9,30.14,NNW,338,1.1,1.1,67,0.00,CLR,,0.00,WeatherDisplay:10.37,2013-02-06 16:31:00,
2013-02-06 11:32:00,36.9,26.9,30.14,NNW,338,1.1,1.1,67,0.00,CLR,,0.00,WeatherDisplay:10.37,2013-02-06 16:32:00,
2013-02-06 11:34:00,36.9,26.9,30.14,NNW,338,1.1,1.1,67,0.00,CLR,,0.00,WeatherDisplay:10.37,2013-02-06 16:34:00,
2013-02-06 11:35:00,36.9,26.9,30.14,NNW,338,1.1,1.1,67,0.00,CLR,,0.00,WeatherDisplay:10.37,2013-02-06 16:35:00,
2013-02-06 11:36:00,36.9,26.9,30.14,NNW,338,1.1,1.1,67,0.00,CLR,,0.00,WeatherDisplay:10.37,2013-02-06 16:36:00,
2013-02-06 11:37:00,36.9,26.9,30.14,NNW,338,1.1,1.1,67,0.00,CLR,,0.00,WeatherDisplay:10.37,2013-02-06 16:37:00,
2013-02-06 11:39:00,36.9,26.9,30.14,NNW,338,1.1,1.1,67,0.00,CLR,,0.00,WeatherDisplay:10.37,2013-02-06 16:39:00,
2013-02-06 11:40:00,36.9,26.9,30.14,NNW,338,1.1,1.1,67,0.00,CLR,,0.00,WeatherDisplay:10.37,2013-02-06 16:40:00,
2013-02-06 11:42:00,36.9,26.9,30.14,NNW,338,1.1,1.1,67,0.00,CLR,,0.00,WeatherDisplay:10.37,2013-02-06 16:42:00,
2013-02-06 11:45:00,36.9,26.9,30.14,NNW,338,1.1,1.1,67,0.00,CLR,,0.00,WeatherDisplay:10.37,2013-02-06 16:45:00,
2013-02-06 11:46:00,36.9,26.9,30.14,NNW,338,1.1,1.1,67,0.00,CLR,,0.00,WeatherDisplay:10.37,2013-02-06 16:46:00,
2013-02-06 11:47:00,36.9,26.9,30.14,NNW,338,1.1,1.1,67,0.00,CLR,,0.00,WeatherDisplay:10.37,2013-02-06 16:47:00,
2013-02-06 11:48:00,36.9,26.9,30.14,NNW,338,1.1,1.1,67,0.00,CLR,,0.00,WeatherDisplay:10.37,2013-02-06 16:48:00,
2013-02-06 11:50:00,36.9,26.9,30.14,NNW,338,1.1,1.1,67,0.00,CLR,,0.00,WeatherDisplay:10.37,2013-02-06 16:50:00,
2013-02-06 11:51:00,36.9,26.9,30.14,NNW,338,1.1,1.1,67,0.00,CLR,,0.00,WeatherDisplay:10.37,2013-02-06 16:51:00,
2013-02-06 11:52:00,36.9,26.9,30.14,NNW,338,1.1,1.1,67,0.00,CLR,,0.00,WeatherDisplay:10.37,2013-02-06 16:52:00,
2013-02-06 11:53:00,36.9,26.9,30.14,NNW,338,1.1,1.1,67,0.00,CLR,,0.00,WeatherDisplay:10.37,2013-02-06 16:53:00,
2013-02-06 11:55:00,36.9,26.9,30.14,NNW,338,1.1,1.1,67,0.00,CLR,,0.00,WeatherDisplay:10.37,2013-02-06 16:55:00,
2013-02-06 11:56:00,36.9,26.9,30.14,NNW,338,1.1,1.1,67,0.00,CLR,,0.00,WeatherDisplay:10.37,2013-02-06 16:56:00,
2013-02-06 11:58:00,36.9,26.9,30.14,NNW,338,1.1,1.1,67,0.00,CLR,,0.00,WeatherDisplay:10.37,2013-02-06 16:58:00,
2013-02-06 12:00:00,36.9,26.9,30.14,NNW,338,1.1,1.1,67,0.00,CLR,,0.00,WeatherDisplay:10.37,2013-02-06 17:00:00,
2013-02-06 12:01:00,37.0,26.4,30.13,East,90,1.1,1.1,65,0.00,CLR,,0.00,WeatherDisplay:10.37,2013-02-06 17:01:00,
2013-02-06 12:03:00,37.0,26.4,30.13,East,90,1.1,1.1,65,0.00,CLR,,0.00,WeatherDisplay:10.37,2013-02-06 17:03:00,
2013-02-06 12:06:00,37.0,26.4,30.13,East,90,1.1,1.1,65,0.00,CLR,,0.00,WeatherDisplay:10.37,2013-02-06 17:06:00,
2013-02-06 12:07:00,37.0,26.4,30.13,East,90,1.1,1.1,65,0.00,CLR,,0.00,WeatherDisplay:10.37,2013-02-06 17:07:00,
2013-02-06 12:08:00,37.0,26.4,30.13,East,90,1.1,1.1,65,0.00,CLR,,0.00,WeatherDisplay:10.37,2013-02-06 17:08:00,
2013-02-06 12:11:00,37.0,26.4,30.13,East,90,1.1,1.1,65,0.00,CLR,,0.00,WeatherDisplay:10.37,2013-02-06 17:11:00,
2013-02-06 12:12:00,37.0,26.4,30.13,East,90,1.1,1.1,65,0.00,CLR,,0.00,WeatherDisplay:10.37,2013-02-06 17:12:00,
2013-02-06 12:13:00,37.0,26.4,30.13,East,90,1.1,1.1,65,0.00,CLR,,0.00,WeatherDisplay:10.37,2013-02-06 17:13:00,
2013-02-06 12:16:00,37.0,26.4,30.13,East,90,1.1,1.1,65,0.00,CLR,,0.00,WeatherDisplay:10.37,2013-02-06 17:16:00,
2013-02-06 12:17:00,37.0,26.4,30.13,East,90,1.1,1.1,65,0.00,CLR,,0.00,WeatherDisplay:10.37,2013-02-06 17:17:00,
2013-02-06 12:18:00,37.0,26.4,30.13,East,90,1.1,1.1,65,0.00,CLR,,0.00,WeatherDisplay:10.37,2013-02-06 17:18:00,
2013-02-06 12:19:00,37.0,26.4,30.13,East,90,1.1,1.1,65,0.00,CLR,,0.00,WeatherDisplay:10.37,2013-02-06 17:19:00,
2013-02-06 12:21:00,37.0,26.4,30.13,East,90,1.1,1.1,65,0.00,CLR,,0.00,WeatherDisplay:10.37,2013-02-06 17:21:00,
2013-02-06 12:22:00,37.0,26.4,30.13,East,90,1.1,1.1,65,0.00,CLR,,0.00,WeatherDisplay:10.37,2013-02-06 17:22:00,
2013-02-06 12:23:00,37.0,26.4,30.13,East,90,1.1,1.1,65,0.00,CLR,,0.00,WeatherDisplay:10.37,2013-02-06 17:23:00,
2013-02-06 12:24:00,37.0,26.4,30.13,East,90,1.1,1.1,65,0.00,CLR,,0.00,WeatherDisplay:10.37,2013-02-06 17:24:00,
2013-02-06 12:26:00,37.0,26.4,30.13,East,90,1.1,1.1,65,0.00,CLR,,0.00,WeatherDisplay:10.37,2013-02-06 17:26:00,
2013-02-06 12:27:00,37.0,26.4,30.13,East,90,1.1,1.1,65,0.00,CLR,,0.00,WeatherDisplay:10.37,2013-02-06 17:27:00,
2013-02-06 12:28:00,37.0,26.4,30.13,East,90,1.1,1.1,65,0.00,CLR,,0.00,WeatherDisplay:10.37,2013-02-06 17:28:00,
2013-02-06 12:29:00,37.0,26.4,30.13,East,90,1.1,1.1,65,0.00,CLR,,0.00,WeatherDisplay:10.37,2013-02-06 17:29:00,
2013-02-06 12:31:00,38.1,25.0,30.14,South,180,4.7,4.7,59,0.00,CLR,,0.00,WeatherDisplay:10.37,2013-02-06 17:31:00,
2013-02-06 12:32:00,38.1,25.0,30.14,South,180,4.6,4.7,59,0.00,CLR,,0.00,WeatherDisplay:10.37,2013-02-06 17:32:00,
2013-02-06 12:33:00,38.1,25.0,30.14,South,180,4.6,4.7,59,0.00,CLR,,0.00,WeatherDisplay:10.37,2013-02-06 17:33:00,
2013-02-06 12:34:00,38.1,25.0,30.14,South,180,4.6,4.7,59,0.00,CLR,,0.00,WeatherDisplay:10.37,2013-02-06 17:34:00,
2013-02-06 12:36:00,38.1,25.0,30.14,South,180,4.6,4.7,59,0.00,CLR,,0.00,WeatherDisplay:10.37,2013-02-06 17:36:00,
2013-02-06 12:37:00,38.1,25.0,30.14,South,180,4.6,4.7,59,0.00,CLR,,0.00,WeatherDisplay:10.37,2013-02-06 17:37:00,
2013-02-06 12:39:00,38.1,25.0,30.14,South,180,4.6,4.7,59,0.00,CLR,,0.00,WeatherDisplay:10.37,2013-02-06 17:39:00,
2013-02-06 12:42:00,38.1,25.0,30.14,South,180,4.6,4.7,59,0.00,CLR,,0.00,WeatherDisplay:10.37,2013-02-06 17:42:00,
2013-02-06 12:44:00,38.1,25.0,30.14,South,180,4.6,4.7,59,0.00,CLR,,0.00,WeatherDisplay:10.37,2013-02-06 17:44:00,
2013-02-06 12:47:00,38.1,25.0,30.14,South,180,4.6,4.7,59,0.00,CLR,,0.00,WeatherDisplay:10.37,2013-02-06 17:47:00,
2013-02-06 12:49:00,38.1,25.0,30.14,South,180,4.6,4.7,59,0.00,CLR,,0.00,WeatherDisplay:10.37,2013-02-06 17:49:00,
2013-02-06 12:52:00,38.1,25.0,30.14,South,180,4.6,4.7,59,0.00,CLR,,0.00,WeatherDisplay:10.37,2013-02-06 17:52:00,
2013-02-06 12:53:00,38.1,25.0,30.14,South,180,4.6,4.7,59,0.00,CLR,,0.00,WeatherDisplay:10.37,2013-02-06 17:53:00,
2013-02-06 12:54:00,38.1,25.0,30.14,South,180,4.6,4.7,59,0.00,CLR,,0.00,WeatherDisplay:10.37,2013-02-06 17:54:00,
2013-02-06 12:57:00,38.1,25.0,30.14,South,180,4.6,4.7,59,0.00,CLR,,0.00,WeatherDisplay:10.37,2013-02-06 17:57:00,
2013-02-06 12:58:00,38.1,25.0,30.14,South,180,4.6,4.7,59,0.00,CLR,,0.00,WeatherDisplay:10.37,2013-02-06 17:58:00,
2013-02-06 12:59:00,38.1,25.0,30.14,South,180,4.6,4.7,59,0.00,CLR,,0.00,WeatherDisplay:10.37,2013-02-06 17:59:00,
2013-02-06 13:02:00,39.7,26.6,30.15,NNE,22,1.6,1.6,59,0.00,CLR,,0.00,WeatherDisplay:10.37,2013-02-06 18:02:00,
2013-02-06 13:03:00,39.7,26.6,30.15,NNE,22,1.1,1.6,59,0.00,CLR,,0.00,WeatherDisplay:10.37,2013-02-06 18:03:00,
2013-02-06 13:04:00,39.7,26.6,30.15,NNE,22,1.6,1.6,59,0.00,CLR,,0.00,WeatherDisplay:10.37,2013-02-06 18:04:00,
2013-02-06 13:05:00,39.7,26.6,30.15,NNE,22,1.1,1.6,59,0.00,CLR,,0.00,WeatherDisplay:10.37,2013-02-06 18:05:00,
2013-02-06 13:07:00,39.7,26.6,30.15,NNE,22,1.1,1.6,59,0.00,CLR,,0.00,WeatherDisplay:10.37,2013-02-06 18:07:00,
2013-02-06 13:08:00,39.7,26.6,30.15,NNE,22,1.1,1.6,59,0.00,CLR,,0.00,WeatherDisplay:10.37,2013-02-06 18:08:00,
2013-02-06 13:09:00,39.7,26.6,30.15,NNE,22,1.1,1.6,59,0.00,CLR,,0.00,WeatherDisplay:10.37,2013-02-06 18:09:00,
2013-02-06 13:10:00,39.7,26.6,30.15,NNE,22,1.1,1.6,59,0.00,CLR,,0.00,WeatherDisplay:10.37,2013-02-06 18:10:00,
2013-02-06 13:13:00,39.7,26.6,30.15,NNE,22,1.1,1.6,59,0.00,CLR,,0.00,WeatherDisplay:10.37,2013-02-06 18:13:00,
2013-02-06 13:15:00,39.7,26.6,30.15,NNE,22,1.1,1.6,59,0.00,CLR,,0.00,WeatherDisplay:10.37,2013-02-06 18:15:00,
2013-02-06 13:16:00,39.7,26.6,30.15,NNE,22,1.1,1.6,59,0.00,CLR,,0.00,WeatherDisplay:10.37,2013-02-06 18:16:00,
2013-02-06 13:18:00,39.7,26.6,30.15,NNE,22,1.1,1.6,59,0.00,CLR,,0.00,WeatherDisplay:10.37,2013-02-06 18:18:00,
2013-02-06 13:20:00,39.7,26.6,30.15,NNE,22,1.1,1.6,59,0.00,CLR,,0.00,WeatherDisplay:10.37,2013-02-06 18:20:00,
2013-02-06 13:21:00,39.7,26.6,30.15,NNE,22,1.1,1.6,59,0.00,CLR,,0.00,WeatherDisplay:10.37,2013-02-06 18:21:00,
2013-02-06 13:23:00,39.7,26.6,30.15,NNE,22,1.1,1.6,59,0.00,CLR,,0.00,WeatherDisplay:10.37,2013-02-06 18:23:00,
2013-02-06 13:26:00,39.7,26.6,30.15,NNE,22,1.1,1.6,59,0.00,CLR,,0.00,WeatherDisplay:10.37,2013-02-06 18:26:00,
2013-02-06 13:28:00,39.7,26.6,30.15,NNE,22,1.1,1.6,59,0.00,CLR,,0.00,WeatherDisplay:10.37,2013-02-06 18:28:00,
2013-02-06 13:29:00,39.7,26.6,30.15,NNE,22,1.1,1.6,59,0.00,CLR,,0.00,WeatherDisplay:10.37,2013-02-06 18:29:00,
2013-02-06 13:31:00,38.7,24.3,30.16,East,90,4.6,4.7,56,0.01,RA,,0.01,WeatherDisplay:10.37,2013-02-06 18:31:00,
2013-02-06 13:33:00,38.7,24.3,30.16,East,90,4.6,4.7,56,0.01,RA,,0.01,WeatherDisplay:10.37,2013-02-06 18:33:00,
2013-02-06 13:34:00,38.7,24.3,30.16,East,90,4.6,4.7,56,0.01,RA,,0.01,WeatherDisplay:10.37,2013-02-06 18:34:00,
2013-02-06 13:36:00,38.7,24.3,30.16,East,90,4.6,4.7,56,0.01,RA,,0.01,WeatherDisplay:10.37,2013-02-06 18:36:00,
2013-02-06 13:37:00,38.7,24.3,30.16,East,90,4.6,4.7,56,0.01,RA,,0.01,WeatherDisplay:10.37,2013-02-06 18:37:00,
2013-02-06 13:38:00,38.7,24.3,30.16,East,90,4.6,4.7,56,0.01,RA,,0.01,WeatherDisplay:10.37,2013-02-06 18:38:00,
2013-02-06 13:39:00,38.7,24.3,30.16,East,90,4.6,4.7,56,0.01,RA,,0.01,WeatherDisplay:10.37,2013-02-06 18:39:00,
2013-02-06 13:42:00,38.7,24.3,30.16,East,90,4.6,4.7,56,0.01,RA,,0.01,WeatherDisplay:10.37,2013-02-06 18:42:00,
2013-02-06 13:43:00,38.7,24.3,30.16,East,90,4.6,4.7,56,0.01,,,0.01,WeatherDisplay:10.37,2013-02-06 18:43:00,
2013-02-06 13:44:00,38.7,24.3,30.16,East,90,4.6,4.7,56,0.01,CLR,,0.01,WeatherDisplay:10.37,2013-02-06 18:44:00,
2013-02-06 13:47:00,38.7,24.3,30.16,East,90,4.6,4.7,56,0.01,CLR,,0.01,WeatherDisplay:10.37,2013-02-06 18:47:00,
2013-02-06 13:48:00,38.7,24.3,30.16,East,90,4.6,4.7,56,0.01,CLR,,0.01,WeatherDisplay:10.37,2013-02-06 18:48:00,
2013-02-06 13:49:00,38.7,24.3,30.16,East,90,4.6,4.7,56,0.01,CLR,,0.01,WeatherDisplay:10.37,2013-02-06 18:49:00,
2013-02-06 13:52:00,38.7,24.3,30.16,East,90,4.6,4.7,56,0.01,CLR,,0.01,WeatherDisplay:10.37,2013-02-06 18:52:00,
2013-02-06 13:53:00,38.7,24.3,30.16,East,90,4.6,4.7,56,0.01,CLR,,0.01,WeatherDisplay:10.37,2013-02-06 18:53:00,
2013-02-06 13:54:00,38.7,24.3,30.16,East,90,4.6,4.7,56,0.01,CLR,,0.01,WeatherDisplay:10.37,2013-02-06 18:54:00,
2013-02-06 13:57:00,38.7,24.3,30.16,East,90,4.6,4.7,56,0.01,CLR,,0.01,WeatherDisplay:10.37,2013-02-06 18:57:00,
2013-02-06 13:59:00,38.7,24.3,30.16,East,90,4.6,4.7,56,0.01,CLR,,0.01,WeatherDisplay:10.37,2013-02-06 18:59:00,
2013-02-06 14:02:00,38.3,24.4,30.16,East,90,5.8,5.8,57,0.01,CLR,,0.01,WeatherDisplay:10.37,2013-02-06 19:02:00,
2013-02-06 14:04:00,38.3,24.4,30.16,East,90,5.8,5.8,57,0.01,CLR,,0.01,WeatherDisplay:10.37,2013-02-06 19:04:00,
2013-02-06 14:05:00,38.3,24.4,30.16,East,90,5.8,5.8,57,0.01,CLR,,0.01,WeatherDisplay:10.37,2013-02-06 19:05:00,
2013-02-06 14:08:00,38.3,24.4,30.16,East,90,5.8,5.8,57,0.01,CLR,,0.01,WeatherDisplay:10.37,2013-02-06 19:08:00,
2013-02-06 14:09:00,38.3,24.4,30.16,East,90,5.8,5.8,57,0.01,CLR,,0.01,WeatherDisplay:10.37,2013-02-06 19:09:00,
2013-02-06 14:10:00,38.3,24.4,30.16,East,90,5.8,5.8,57,0.01,CLR,,0.01,WeatherDisplay:10.37,2013-02-06 19:10:00,
2013-02-06 14:13:00,38.3,24.4,30.16,East,90,5.8,5.8,57,0.01,CLR,,0.01,WeatherDisplay:10.37,2013-02-06 19:13:00,
2013-02-06 14:14:00,38.3,24.4,30.16,East,90,5.8,5.8,57,0.01,CLR,,0.01,WeatherDisplay:10.37,2013-02-06 19:14:00,
2013-02-06 14:15:00,38.3,24.4,30.16,East,90,5.8,5.8,57,0.01,CLR,,0.01,WeatherDisplay:10.37,2013-02-06 19:15:00,
2013-02-06 14:18:00,38.3,24.4,30.16,East,90,5.8,5.8,57,0.01,CLR,,0.01,WeatherDisplay:10.37,2013-02-06 19:18:00,
2013-02-06 14:19:00,38.3,24.4,30.16,East,90,5.8,5.8,57,0.01,CLR,,0.01,WeatherDisplay:10.37,2013-02-06 19:19:00,
2013-02-06 14:21:00,38.3,24.4,30.16,East,90,5.8,5.8,57,0.01,CLR,,0.01,WeatherDisplay:10.37,2013-02-06 19:21:00,
2013-02-06 14:23:00,38.3,24.4,30.16,East,90,5.8,5.8,57,0.01,CLR,,0.01,WeatherDisplay:10.37,2013-02-06 19:23:00,
2013-02-06 14:24:00,38.3,24.4,30.16,East,90,5.8,5.8,57,0.01,CLR,,0.01,WeatherDisplay:10.37,2013-02-06 19:24:00,
2013-02-06 14:26:00,38.3,24.4,30.16,East,90,5.8,5.8,57,0.01,CLR,,0.01,WeatherDisplay:10.37,2013-02-06 19:26:00,
2013-02-06 14:28:00,38.3,24.4,30.16,East,90,5.8,5.8,57,0.01,CLR,,0.01,WeatherDisplay:10.37,2013-02-06 19:28:00,
2013-02-06 14:29:00,38.3,24.4,30.16,East,90,5.8,5.8,57,0.01,CLR,,0.01,WeatherDisplay:10.37,2013-02-06 19:29:00,
2013-02-06 14:30:00,38.3,24.4,30.16,East,90,5.8,5.8,57,0.01,CLR,,0.01,WeatherDisplay:10.37,2013-02-06 19:30:00,
2013-02-06 14:31:00,38.8,24.5,30.17,SSE,158,5.8,5.8,56,0.01,CLR,,0.01,WeatherDisplay:10.37,2013-02-06 19:31:00,
2013-02-06 14:33:00,38.8,24.5,30.17,SSE,158,5.8,5.8,56,0.00,CLR,,0.01,WeatherDisplay:10.37,2013-02-06 19:33:00,
2013-02-06 14:35:00,38.8,24.5,30.17,SSE,158,5.8,5.8,56,0.00,CLR,,0.01,WeatherDisplay:10.37,2013-02-06 19:35:00,
2013-02-06 14:36:00,38.8,24.5,30.17,SSE,158,5.8,5.8,56,0.00,CLR,,0.01,WeatherDisplay:10.37,2013-02-06 19:36:00,
2013-02-06 14:38:00,38.8,24.5,30.17,SSE,158,5.8,5.8,56,0.00,CLR,,0.01,WeatherDisplay:10.37,2013-02-06 19:38:00,
2013-02-06 14:40:00,38.8,24.5,30.17,SSE,158,5.8,5.8,56,0.00,CLR,,0.01,WeatherDisplay:10.37,2013-02-06 19:40:00,
2013-02-06 14:41:00,38.8,24.5,30.17,SSE,158,5.8,5.8,56,0.00,CLR,,0.01,WeatherDisplay:10.37,2013-02-06 19:41:00,
2013-02-06 14:44:00,38.8,24.5,30.17,SSE,158,5.8,5.8,56,0.00,CLR,,0.01,WeatherDisplay:10.37,2013-02-06 19:44:00,
2013-02-06 14:45:00,38.8,24.5,30.17,SSE,158,5.8,5.8,56,0.00,CLR,,0.01,WeatherDisplay:10.37,2013-02-06 19:45:00,
2013-02-06 14:46:00,38.8,24.5,30.17,SSE,158,5.8,5.8,56,0.00,CLR,,0.01,WeatherDisplay:10.37,2013-02-06 19:46:00,
2013-02-06 14:49:00,38.8,24.5,30.17,SSE,158,5.8,5.8,56,0.00,CLR,,0.01,WeatherDisplay:10.37,2013-02-06 19:49:00,
2013-02-06 14:50:00,38.8,24.5,30.17,SSE,158,5.8,5.8,56,0.00,CLR,,0.01,WeatherDisplay:10.37,2013-02-06 19:50:00,
2013-02-06 14:51:00,38.8,24.5,30.17,SSE,158,5.8,5.8,56,0.00,CLR,,0.01,WeatherDisplay:10.37,2013-02-06 19:51:00,
2013-02-06 14:53:00,38.8,24.5,30.17,SSE,158,5.8,5.8,56,0.00,CLR,,0.01,WeatherDisplay:10.37,2013-02-06 19:53:00,
2013-02-06 14:54:00,38.8,24.5,30.17,SSE,158,5.8,5.8,56,0.00,CLR,,0.01,WeatherDisplay:10.37,2013-02-06 19:54:00,
2013-02-06 14:55:00,38.8,24.5,30.17,SSE,158,5.8,5.8,56,0.00,CLR,,0.01,WeatherDisplay:10.37,2013-02-06 19:55:00,
2013-02-06 14:56:00,38.8,24.5,30.17,SSE,158,5.8,5.8,56,0.00,CLR,,0.01,WeatherDisplay:10.37,2013-02-06 19:56:00,
2013-02-06 14:58:00,38.8,24.5,30.17,SSE,158,5.8,5.8,56,0.00,CLR,,0.01,WeatherDisplay:10.37,2013-02-06 19:58:00,
2013-02-06 14:59:00,38.8,24.5,30.17,SSE,158,5.8,5.8,56,0.00,CLR,,0.01,WeatherDisplay:10.37,2013-02-06 19:59:00,
2013-02-06 15:00:00,37.4,23.5,30.18,ESE,112,5.8,5.8,57,0.00,CLR,,0.01,WeatherDisplay:10.37,2013-02-06 20:00:00,
2013-02-06 15:01:00,37.4,23.5,30.18,ESE,112,5.8,5.8,57,0.00,CLR,,0.01,WeatherDisplay:10.37,2013-02-06 20:01:00,
2013-02-06 15:03:00,37.4,23.5,30.18,ESE,112,1.1,1.1,57,0.00,CLR,,0.01,WeatherDisplay:10.37,2013-02-06 20:03:00,
2013-02-06 15:04:00,37.4,23.5,30.18,ESE,112,1.1,1.1,57,0.00,CLR,,0.01,WeatherDisplay:10.37,2013-02-06 20:04:00,
2013-02-06 15:05:00,37.4,23.5,30.18,ESE,112,1.1,1.1,57,0.00,CLR,,0.01,WeatherDisplay:10.37,2013-02-06 20:05:00,
2013-02-06 15:06:00,37.4,23.5,30.18,ESE,112,1.1,1.1,57,0.00,CLR,,0.01,WeatherDisplay:10.37,2013-02-06 20:06:00,
2013-02-06 15:08:00,37.4,23.5,30.18,ESE,112,1.1,1.1,57,0.00,CLR,,0.01,WeatherDisplay:10.37,2013-02-06 20:08:00,
2013-02-06 15:09:00,37.4,23.5,30.18,ESE,112,1.1,1.1,57,0.00,CLR,,0.01,WeatherDisplay:10.37,2013-02-06 20:09:00,
2013-02-06 15:10:00,37.4,23.5,30.18,ESE,112,1.1,1.1,57,0.00,CLR,,0.01,WeatherDisplay:10.37,2013-02-06 20:10:00,
2013-02-06 15:11:00,37.4,23.5,30.18,ESE,112,1.1,1.1,57,0.00,CLR,,0.01,WeatherDisplay:10.37,2013-02-06 20:11:00,
2013-02-06 15:13:00,37.4,23.5,30.18,ESE,112,1.1,1.1,57,0.00,CLR,,0.01,WeatherDisplay:10.37,2013-02-06 20:13:00,
2013-02-06 15:14:00,37.4,23.5,30.18,ESE,112,1.1,1.1,57,0.00,CLR,,0.01,WeatherDisplay:10.37,2013-02-06 20:14:00,
2013-02-06 15:16:00,37.4,23.5,30.18,ESE,112,1.1,1.1,57,0.00,CLR,,0.01,WeatherDisplay:10.37,2013-02-06 20:16:00,
2013-02-06 15:18:00,37.4,23.5,30.18,ESE,112,1.1,1.1,57,0.00,CLR,,0.01,WeatherDisplay:10.37,2013-02-06 20:18:00,
2013-02-06 15:20:00,37.4,23.5,30.18,ESE,112,1.1,1.1,57,0.00,CLR,,0.01,WeatherDisplay:10.37,2013-02-06 20:20:00,
2013-02-06 15:21:00,37.4,23.5,30.18,ESE,112,1.1,1.1,57,0.00,CLR,,0.01,WeatherDisplay:10.37,2013-02-06 20:21:00,
2013-02-06 15:23:00,37.4,23.5,30.18,ESE,112,1.1,1.1,57,0.00,CLR,,0.01,WeatherDisplay:10.37,2013-02-06 20:23:00,
2013-02-06 15:25:00,37.4,23.5,30.18,ESE,112,1.1,1.1,57,0.00,CLR,,0.01,WeatherDisplay:10.37,2013-02-06 20:25:00,
2013-02-06 15:26:00,37.4,23.5,30.18,ESE,112,1.1,1.1,57,0.00,CLR,,0.01,WeatherDisplay:10.37,2013-02-06 20:26:00,
2013-02-06 15:27:00,37.4,23.5,30.18,ESE,112,1.1,1.1,57,0.00,CLR,,0.01,WeatherDisplay:10.37,2013-02-06 20:27:00,
2013-02-06 15:29:00,37.4,23.5,30.18,ESE,112,1.1,1.1,57,0.00,CLR,,0.01,WeatherDisplay:10.37,2013-02-06 20:29:00,
2013-02-06 15:30:00,37.4,23.5,30.18,ESE,112,1.1,1.1,57,0.00,CLR,,0.01,WeatherDisplay:10.37,2013-02-06 20:30:00,
2013-02-06 15:31:00,38.1,24.2,30.19,SE,135,2.3,2.3,57,0.00,CLR,,0.01,WeatherDisplay:10.37,2013-02-06 20:31:00,
2013-02-06 15:32:00,38.1,24.2,30.19,SE,135,2.3,2.3,57,0.00,CLR,,0.01,WeatherDisplay:10.37,2013-02-06 20:32:00,
2013-02-06 15:34:00,38.1,24.2,30.19,SE,135,2.3,2.3,57,0.00,CLR,,0.01,WeatherDisplay:10.37,2013-02-06 20:34:00,
2013-02-06 15:35:00,38.1,24.2,30.19,SE,135,2.3,2.3,57,0.00,CLR,,0.01,WeatherDisplay:10.37,2013-02-06 20:35:00,
2013-02-06 15:37:00,38.1,24.2,30.19,SE,135,2.3,2.3,57,0.00,CLR,,0.01,WeatherDisplay:10.37,2013-02-06 20:37:00,
2013-02-06 15:38:00,38.1,24.2,30.19,SE,135,2.3,2.3,57,0.00,CLR,,0.01,WeatherDisplay:10.37,2013-02-06 20:38:00,
2013-02-06 15:39:00,38.1,24.2,30.19,SE,135,2.3,2.3,57,0.00,CLR,,0.01,WeatherDisplay:10.37,2013-02-06 20:39:00,
2013-02-06 15:40:00,38.1,24.2,30.19,SE,135,2.3,2.3,57,0.00,CLR,,0.01,WeatherDisplay:10.37,2013-02-06 20:40:00,
2013-02-06 15:42:00,38.1,24.2,30.19,SE,135,2.3,2.3,57,0.00,CLR,,0.01,WeatherDisplay:10.37,2013-02-06 20:42:00,
2013-02-06 15:43:00,38.1,24.2,30.19,SE,135,2.3,2.3,57,0.00,CLR,,0.01,WeatherDisplay:10.37,2013-02-06 20:43:00,
2013-02-06 15:44:00,38.1,24.2,30.19,SE,135,2.3,2.3,57,0.00,CLR,,0.01,WeatherDisplay:10.37,2013-02-06 20:44:00,
2013-02-06 15:45:00,38.1,24.2,30.19,SE,135,2.3,2.3,57,0.00,CLR,,0.01,WeatherDisplay:10.37,2013-02-06 20:45:00,
2013-02-06 15:47:00,38.1,24.2,30.19,SE,135,2.3,2.3,57,0.00,CLR,,0.01,WeatherDisplay:10.37,2013-02-06 20:47:00,
2013-02-06 15:48:00,38.1,24.2,30.19,SE,135,2.3,2.3,57,0.00,CLR,,0.01,WeatherDisplay:10.37,2013-02-06 20:48:00,
2013-02-06 15:49:00,38.1,24.2,30.19,SE,135,2.3,2.3,57,0.00,CLR,,0.01,WeatherDisplay:10.37,2013-02-06 20:49:00,
2013-02-06 15:51:00,38.1,24.2,30.19,SE,135,2.3,2.3,57,0.00,CLR,,0.01,WeatherDisplay:10.37,2013-02-06 20:51:00,
2013-02-06 15:53:00,38.1,24.2,30.19,SE,135,2.3,2.3,57,0.00,CLR,,0.01,WeatherDisplay:10.37,2013-02-06 20:53:00,
2013-02-06 15:54:00,38.1,24.2,30.19,SE,135,2.3,2.3,57,0.00,CLR,,0.01,WeatherDisplay:10.37,2013-02-06 20:54:00,
2013-02-06 15:56:00,38.1,24.2,30.19,SE,135,2.3,2.3,57,0.00,CLR,,0.01,WeatherDisplay:10.37,2013-02-06 20:56:00,
2013-02-06 15:58:00,38.1,24.2,30.19,SE,135,2.3,2.3,57,0.00,CLR,,0.01,WeatherDisplay:10.37,2013-02-06 20:58:00,
2013-02-06 15:59:00,38.1,24.2,30.19,SE,135,2.3,2.3,57,0.00,CLR,,0.01,WeatherDisplay:10.37,2013-02-06 20:59:00,
2013-02-06 16:02:00,38.7,24.3,30.21,SE,135,1.1,1.4,56,0.00,CLR,,0.01,WeatherDisplay:10.37,2013-02-06 21:02:00,
2013-02-06 16:03:00,38.7,24.3,30.21,SE,135,1.1,1.4,56,0.00,CLR,,0.01,WeatherDisplay:10.37,2013-02-06 21:03:00,
2013-02-06 16:05:00,38.7,24.3,30.21,SE,135,1.1,1.4,56,0.00,CLR,,0.01,WeatherDisplay:10.37,2013-02-06 21:05:00,
2013-02-06 16:07:00,38.7,24.3,30.21,SE,135,1.1,1.4,56,0.00,CLR,,0.01,WeatherDisplay:10.37,2013-02-06 21:07:00,
2013-02-06 16:08:00,38.7,24.3,30.21,SE,135,1.1,1.4,56,0.00,CLR,,0.01,WeatherDisplay:10.37,2013-02-06 21:08:00,
2013-02-06 16:09:00,38.7,24.3,30.21,SE,135,1.1,1.4,56,0.00,CLR,,0.01,WeatherDisplay:10.37,2013-02-06 21:09:00,
2013-02-06 16:10:00,38.7,24.3,30.21,SE,135,1.1,1.4,56,0.00,CLR,,0.01,WeatherDisplay:10.37,2013-02-06 21:10:00,
2013-02-06 16:12:00,38.7,24.3,30.21,SE,135,1.1,1.4,56,0.00,CLR,,0.01,WeatherDisplay:10.37,2013-02-06 21:12:00,
2013-02-06 16:13:00,38.7,24.3,30.21,SE,135,1.1,1.4,56,0.00,CLR,,0.01,WeatherDisplay:10.37,2013-02-06 21:13:00,
2013-02-06 16:14:00,38.7,24.3,30.21,SE,135,1.1,1.4,56,0.00,CLR,,0.01,WeatherDisplay:10.37,2013-02-06 21:14:00,
2013-02-06 16:15:00,38.7,24.3,30.21,SE,135,1.1,1.4,56,0.00,CLR,,0.01,WeatherDisplay:10.37,2013-02-06 21:15:00,
2013-02-06 16:17:00,38.7,24.3,30.21,SE,135,1.1,1.4,56,0.00,CLR,,0.01,WeatherDisplay:10.37,2013-02-06 21:17:00,
2013-02-06 16:18:00,38.7,24.3,30.21,SE,135,1.1,1.4,56,0.00,CLR,,0.01,WeatherDisplay:10.37,2013-02-06 21:18:00,
2013-02-06 16:19:00,38.7,24.3,30.21,SE,135,1.1,1.4,56,0.00,CLR,,0.01,WeatherDisplay:10.37,2013-02-06 21:19:00,
2013-02-06 16:20:00,38.7,24.3,30.21,SE,135,1.1,1.4,56,0.00,CLR,,0.01,WeatherDisplay:10.37,2013-02-06 21:20:00,
2013-02-06 16:22:00,38.7,24.3,30.21,SE,135,1.4,1.4,56,0.00,CLR,,0.01,WeatherDisplay:10.37,2013-02-06 21:22:00,
2013-02-06 16:23:00,38.7,24.3,30.21,SE,135,1.1,1.4,56,0.00,CLR,,0.01,WeatherDisplay:10.37,2013-02-06 21:23:00,
2013-02-06 16:25:00,38.7,24.3,30.21,SE,135,1.1,1.4,56,0.00,CLR,,0.01,WeatherDisplay:10.37,2013-02-06 21:25:00,
2013-02-06 16:26:00,38.7,24.3,30.21,SE,135,1.1,1.4,56,0.00,CLR,,0.01,WeatherDisplay:10.37,2013-02-06 21:26:00,
2013-02-06 16:27:00,38.7,24.3,30.21,SE,135,1.1,1.4,56,0.00,CLR,,0.01,WeatherDisplay:10.37,2013-02-06 21:27:00,
2013-02-06 16:29:00,38.7,24.3,30.21,SE,135,1.1,1.4,56,0.00,CLR,,0.01,WeatherDisplay:10.37,2013-02-06 21:29:00,
2013-02-06 16:30:00,38.7,24.3,30.21,SE,135,1.1,1.4,56,0.00,CLR,,0.01,WeatherDisplay:10.37,2013-02-06 21:30:00,
2013-02-06 16:31:00,38.5,22.8,30.22,ESE,112,1.1,1.1,53,0.00,CLR,,0.01,WeatherDisplay:10.37,2013-02-06 21:31:00,
2013-02-06 16:33:00,38.5,22.8,30.22,ESE,112,0.0,0.2,53,0.00,CLR,,0.01,WeatherDisplay:10.37,2013-02-06 21:33:00,
2013-02-06 16:34:00,38.5,22.8,30.22,ESE,112,0.0,0.2,53,0.00,CLR,,0.01,WeatherDisplay:10.37,2013-02-06 21:34:00,
2013-02-06 16:35:00,38.5,22.8,30.22,ESE,112,0.0,0.2,53,0.00,CLR,,0.01,WeatherDisplay:10.37,2013-02-06 21:35:00,
2013-02-06 16:36:00,38.5,22.8,30.22,ESE,112,0.0,0.2,53,0.00,CLR,,0.01,WeatherDisplay:10.37,2013-02-06 21:36:00,
2013-02-06 16:38:00,38.5,22.8,30.22,ESE,112,0.0,0.2,53,0.00,CLR,,0.01,WeatherDisplay:10.37,2013-02-06 21:38:00,
2013-02-06 16:39:00,38.5,22.8,30.22,ESE,112,0.0,0.2,53,0.00,CLR,,0.01,WeatherDisplay:10.37,2013-02-06 21:39:00,
2013-02-06 16:40:00,38.5,22.8,30.22,ESE,112,0.0,0.2,53,0.00,CLR,,0.01,WeatherDisplay:10.37,2013-02-06 21:40:00,
2013-02-06 16:41:00,38.5,22.8,30.22,ESE,112,0.0,0.2,53,0.00,CLR,,0.01,WeatherDisplay:10.37,2013-02-06 21:41:00,
2013-02-06 16:43:00,38.5,22.8,30.22,ESE,112,0.2,0.2,53,0.00,CLR,,0.01,WeatherDisplay:10.37,2013-02-06 21:43:00,
2013-02-06 16:44:00,38.5,22.8,30.22,ESE,112,0.0,0.2,53,0.00,CLR,,0.01,WeatherDisplay:10.37,2013-02-06 21:44:00,
2013-02-06 16:45:00,38.5,22.8,30.22,ESE,112,0.0,0.2,53,0.00,CLR,,0.01,WeatherDisplay:10.37,2013-02-06 21:45:00,
2013-02-06 16:46:00,38.5,22.8,30.22,ESE,112,0.0,0.2,53,0.00,CLR,,0.01,WeatherDisplay:10.37,2013-02-06 21:46:00,
2013-02-06 16:48:00,38.5,22.8,30.22,ESE,112,0.0,0.2,53,0.00,CLR,,0.01,WeatherDisplay:10.37,2013-02-06 21:48:00,
2013-02-06 16:49:00,38.5,22.8,30.22,ESE,112,0.0,0.2,53,0.00,CLR,,0.01,WeatherDisplay:10.37,2013-02-06 21:49:00,
2013-02-06 16:50:00,38.5,22.8,30.22,ESE,112,0.0,0.2,53,0.00,CLR,,0.01,WeatherDisplay:10.37,2013-02-06 21:50:00,
2013-02-06 16:52:00,38.5,22.8,30.22,ESE,112,0.0,0.2,53,0.00,CLR,,0.01,WeatherDisplay:10.37,2013-02-06 21:52:00,
2013-02-06 16:53:00,38.5,22.8,30.22,ESE,112,0.0,0.2,53,0.00,CLR,,0.01,WeatherDisplay:10.37,2013-02-06 21:53:00,
2013-02-06 16:54:00,38.5,22.8,30.22,ESE,112,0.2,0.2,53,0.00,CLR,,0.01,WeatherDisplay:10.37,2013-02-06 21:54:00,
2013-02-06 16:55:00,38.5,22.8,30.22,ESE,112,0.0,0.2,53,0.00,CLR,,0.01,WeatherDisplay:10.37,2013-02-06 21:55:00,
2013-02-06 16:57:00,38.5,22.8,30.22,ESE,112,0.0,0.2,53,0.00,CLR,,0.01,WeatherDisplay:10.37,2013-02-06 21:57:00,
2013-02-06 16:59:00,38.5,22.8,30.22,ESE,112,0.0,0.2,53,0.00,CLR,,0.01,WeatherDisplay:10.37,2013-02-06 21:59:00,
2013-02-06 17:00:00,38.5,22.8,30.22,ESE,112,0.0,0.2,53,0.00,CLR,,0.01,WeatherDisplay:10.37,2013-02-06 22:00:00,
2013-02-06 17:02:00,36.5,21.0,30.24,SSW,202,2.3,2.9,53,0.00,CLR,,0.01,WeatherDisplay:10.37,2013-02-06 22:02:00,
2013-02-06 17:04:00,36.5,21.0,30.24,SSW,202,2.3,2.9,53,0.00,CLR,,0.01,WeatherDisplay:10.37,2013-02-06 22:04:00,
2013-02-06 17:05:00,36.5,21.0,30.24,SSW,202,2.3,2.9,53,0.00,CLR,,0.01,WeatherDisplay:10.37,2013-02-06 22:05:00,
2013-02-06 17:06:00,36.5,21.0,30.24,SSW,202,2.3,2.9,53,0.00,CLR,,0.01,WeatherDisplay:10.37,2013-02-06 22:06:00,
2013-02-06 17:07:00,36.5,21.0,30.24,SSW,202,2.3,2.9,53,0.00,CLR,,0.01,WeatherDisplay:10.37,2013-02-06 22:07:00,
2013-02-06 17:09:00,36.5,21.0,30.24,SSW,202,2.3,2.9,53,0.00,CLR,,0.01,WeatherDisplay:10.37,2013-02-06 22:09:00,
2013-02-06 17:10:00,36.5,21.0,30.24,SSW,202,2.3,2.9,53,0.00,CLR,,0.01,WeatherDisplay:10.37,2013-02-06 22:10:00,
2013-02-06 17:11:00,36.5,21.0,30.24,SSW,202,2.3,2.9,53,0.00,CLR,,0.01,WeatherDisplay:10.37,2013-02-06 22:11:00,
2013-02-06 17:12:00,36.5,21.0,30.24,SSW,202,2.9,2.9,53,0.00,CLR,,0.01,WeatherDisplay:10.37,2013-02-06 22:12:00,
2013-02-06 17:14:00,36.5,21.0,30.24,SSW,202,2.3,2.9,53,0.00,CLR,,0.01,WeatherDisplay:10.37,2013-02-06 22:14:00,
2013-02-06 17:16:00,36.5,21.0,30.24,SSW,202,2.3,2.9,53,0.00,CLR,,0.01,WeatherDisplay:10.37,2013-02-06 22:16:00,
2013-02-06 17:17:00,36.5,21.0,30.24,SSW,202,2.3,2.9,53,0.00,CLR,,0.01,WeatherDisplay:10.37,2013-02-06 22:17:00,
2013-02-06 17:19:00,36.5,21.0,30.24,SSW,202,2.3,2.9,53,0.00,CLR,,0.01,WeatherDisplay:10.37,2013-02-06 22:19:00,
2013-02-06 17:21:00,36.5,21.0,30.24,SSW,202,2.3,2.9,53,0.00,CLR,,0.01,WeatherDisplay:10.37,2013-02-06 22:21:00,
2013-02-06 17:22:00,36.5,21.0,30.24,SSW,202,2.3,2.9,53,0.00,CLR,,0.01,WeatherDisplay:10.37,2013-02-06 22:22:00,
2013-02-06 17:24:00,36.5,21.0,30.24,SSW,202,2.3,2.9,53,0.00,CLR,,0.01,WeatherDisplay:10.37,2013-02-06 22:24:00,
2013-02-06 17:26:00,36.5,21.0,30.24,SSW,202,2.3,2.9,53,0.00,CLR,,0.01,WeatherDisplay:10.37,2013-02-06 22:26:00,
2013-02-06 17:28:00,36.5,21.0,30.24,SSW,202,2.3,2.9,53,0.00,CLR,,0.01,WeatherDisplay:10.37,2013-02-06 22:28:00,
2013-02-06 17:29:00,36.5,21.0,30.24,SSW,202,2.3,2.9,53,0.00,CLR,,0.01,WeatherDisplay:10.37,2013-02-06 22:29:00,
2013-02-06 17:31:00,35.1,19.6,30.27,ESE,112,2.3,2.4,53,0.00,CLR,,0.01,WeatherDisplay:10.37,2013-02-06 22:31:00,
2013-02-06 17:32:00,35.1,19.6,30.27,ESE,112,2.3,2.4,53,0.00,CLR,,0.01,WeatherDisplay:10.37,2013-02-06 22:32:00,
2013-02-06 17:33:00,35.1,19.6,30.27,ESE,112,2.3,2.4,53,0.00,CLR,,0.01,WeatherDisplay:10.37,2013-02-06 22:33:00,
2013-02-06 17:34:00,35.1,19.6,30.27,ESE,112,2.3,2.4,53,0.00,CLR,,0.01,WeatherDisplay:10.37,2013-02-06 22:34:00,
2013-02-06 17:37:00,35.1,19.6,30.27,ESE,112,2.3,2.4,53,0.00,CLR,,0.01,WeatherDisplay:10.37,2013-02-06 22:37:00,
2013-02-06 17:38:00,35.1,19.6,30.27,ESE,112,2.3,2.4,53,0.00,CLR,,0.01,WeatherDisplay:10.37,2013-02-06 22:38:00,
2013-02-06 17:40:00,35.1,19.6,30.27,ESE,112,2.0,2.0,53,0.00,CLR,,0.01,WeatherDisplay:10.37,2013-02-06 22:40:00,
2013-02-06 17:42:00,35.1,19.6,30.27,ESE,112,2.3,2.4,53,0.00,CLR,,0.01,WeatherDisplay:10.37,2013-02-06 22:42:00,
2013-02-06 17:43:00,35.1,19.6,30.27,ESE,112,2.3,2.4,53,0.00,CLR,,0.01,WeatherDisplay:10.37,2013-02-06 22:43:00,
2013-02-06 17:45:00,35.1,19.6,30.27,ESE,112,2.3,2.4,53,0.00,CLR,,0.01,WeatherDisplay:10.37,2013-02-06 22:45:00,
2013-02-06 17:47:00,35.1,19.6,30.27,ESE,112,2.3,2.4,53,0.00,CLR,,0.01,WeatherDisplay:10.37,2013-02-06 22:47:00,
2013-02-06 17:48:00,35.1,19.6,30.27,ESE,112,2.3,2.4,53,0.00,CLR,,0.01,WeatherDisplay:10.37,2013-02-06 22:48:00,
2013-02-06 17:50:00,35.1,19.6,30.27,ESE,112,2.3,2.4,53,0.00,CLR,,0.01,WeatherDisplay:10.37,2013-02-06 22:50:00,
2013-02-06 17:52:00,35.1,19.6,30.27,ESE,112,2.3,2.4,53,0.00,CLR,,0.01,WeatherDisplay:10.37,2013-02-06 22:52:00,
2013-02-06 17:53:00,35.1,19.6,30.27,ESE,112,2.3,2.4,53,0.00,CLR,,0.01,WeatherDisplay:10.37,2013-02-06 22:53:00,
2013-02-06 17:56:00,35.1,19.6,30.27,ESE,112,2.3,2.4,53,0.00,CLR,,0.01,WeatherDisplay:10.37,2013-02-06 22:56:00,
2013-02-06 17:58:00,35.1,19.6,30.27,ESE,112,2.3,2.4,53,0.00,CLR,,0.01,WeatherDisplay:10.37,2013-02-06 22:58:00,
2013-02-06 18:01:00,33.8,18.0,30.28,East,90,2.3,2.3,52,0.00,CLR,,0.01,WeatherDisplay:10.37,2013-02-06 23:01:00,
2013-02-06 18:03:00,33.8,18.0,30.28,East,90,1.1,1.1,52,0.00,CLR,,0.01,WeatherDisplay:10.37,2013-02-06 23:03:00,
2013-02-06 18:04:00,33.8,18.0,30.28,East,90,1.1,1.1,52,0.00,CLR,,0.01,WeatherDisplay:10.37,2013-02-06 23:04:00,
2013-02-06 18:06:00,33.8,18.0,30.28,East,90,1.1,1.1,52,0.00,CLR,,0.01,WeatherDisplay:10.37,2013-02-06 23:06:00,
2013-02-06 18:08:00,33.8,18.0,30.28,East,90,1.1,1.1,52,0.00,CLR,,0.01,WeatherDisplay:10.37,2013-02-06 23:08:00,
2013-02-06 18:09:00,33.8,18.0,30.28,East,90,1.1,1.1,52,0.00,CLR,,0.01,WeatherDisplay:10.37,2013-02-06 23:09:00,
2013-02-06 18:11:00,33.8,18.0,30.28,East,90,1.1,1.1,52,0.00,CLR,,0.01,WeatherDisplay:10.37,2013-02-06 23:11:00,
2013-02-06 18:13:00,33.8,18.0,30.28,East,90,1.1,1.1,52,0.00,CLR,,0.01,WeatherDisplay:10.37,2013-02-06 23:13:00,
2013-02-06 18:14:00,33.8,18.0,30.28,East,90,1.1,1.1,52,0.00,CLR,,0.01,WeatherDisplay:10.37,2013-02-06 23:14:00,
2013-02-06 18:16:00,33.8,18.0,30.28,East,90,1.1,1.1,52,0.00,CLR,,0.01,WeatherDisplay:10.37,2013-02-06 23:16:00,
2013-02-06 18:18:00,33.8,18.0,30.28,East,90,1.1,1.1,52,0.00,CLR,,0.01,WeatherDisplay:10.37,2013-02-06 23:18:00,
2013-02-06 18:19:00,33.8,18.0,30.28,East,90,1.1,1.1,52,0.00,CLR,,0.01,WeatherDisplay:10.37,2013-02-06 23:19:00,
2013-02-06 18:20:00,33.8,18.0,30.28,East,90,1.1,1.1,52,0.00,CLR,,0.01,WeatherDisplay:10.37,2013-02-06 23:20:00,
2013-02-06 18:21:00,33.8,18.0,30.28,East,90,1.1,1.1,52,0.00,CLR,,0.01,WeatherDisplay:10.37,2013-02-06 23:21:00,
2013-02-06 18:24:00,33.8,18.0,30.28,East,90,1.1,1.1,52,0.00,CLR,,0.01,WeatherDisplay:10.37,2013-02-06 23:24:00,
2013-02-06 18:25:00,33.8,18.0,30.28,East,90,1.1,1.1,52,0.00,CLR,,0.01,WeatherDisplay:10.37,2013-02-06 23:25:00,
2013-02-06 18:26:00,33.8,18.0,30.28,East,90,1.1,1.1,52,0.00,CLR,,0.01,WeatherDisplay:10.37,2013-02-06 23:26:00,
2013-02-06 18:29:00,33.8,18.0,30.28,East,90,1.1,1.1,52,0.00,CLR,,0.01,WeatherDisplay:10.37,2013-02-06 23:29:00,
2013-02-06 18:30:00,33.8,18.0,30.28,East,90,1.1,1.1,52,0.00,CLR,,0.01,WeatherDisplay:10.37,2013-02-06 23:30:00,
2013-02-06 18:31:00,32.9,17.2,30.30,SSW,202,2.3,2.3,52,0.00,CLR,,0.01,WeatherDisplay:10.37,2013-02-06 23:31:00,
2013-02-06 18:34:00,32.9,17.2,30.30,SSW,202,2.3,2.3,52,0.00,CLR,,0.01,WeatherDisplay:10.37,2013-02-06 23:34:00,
2013-02-06 18:35:00,32.9,17.2,30.30,SSW,202,2.3,2.3,52,0.00,CLR,,0.01,WeatherDisplay:10.37,2013-02-06 23:35:00,
2013-02-06 18:36:00,32.9,17.2,30.30,SSW,202,2.3,2.3,52,0.00,CLR,,0.01,WeatherDisplay:10.37,2013-02-06 23:36:00,
2013-02-06 18:39:00,32.9,17.2,30.30,SSW,202,2.3,2.3,52,0.00,CLR,,0.01,WeatherDisplay:10.37,2013-02-06 23:39:00,
2013-02-06 18:40:00,32.9,17.2,30.30,SSW,202,2.3,2.3,52,0.00,CLR,,0.01,WeatherDisplay:10.37,2013-02-06 23:40:00,
2013-02-06 18:42:00,32.9,17.2,30.30,SSW,202,2.3,2.3,52,0.00,CLR,,0.01,WeatherDisplay:10.37,2013-02-06 23:42:00,
2013-02-06 18:44:00,32.9,17.2,30.30,SSW,202,2.3,2.3,52,0.00,CLR,,0.01,WeatherDisplay:10.37,2013-02-06 23:44:00,
2013-02-06 18:45:00,32.9,17.2,30.30,SSW,202,2.3,2.3,52,0.00,CLR,,0.01,WeatherDisplay:10.37,2013-02-06 23:45:00,
2013-02-06 18:48:00,32.9,17.2,30.30,SSW,202,2.3,2.3,52,0.00,CLR,,0.01,WeatherDisplay:10.37,2013-02-06 23:48:00,
2013-02-06 18:50:00,32.9,17.2,30.30,SSW,202,2.3,2.3,52,0.00,CLR,,0.01,WeatherDisplay:10.37,2013-02-06 23:50:00,
2013-02-06 18:53:00,32.9,17.2,30.30,SSW,202,2.3,2.3,52,0.00,CLR,,0.01,WeatherDisplay:10.37,2013-02-06 23:53:00,
2013-02-06 18:55:00,32.9,17.2,30.30,SSW,202,2.3,2.3,52,0.00,CLR,,0.01,WeatherDisplay:10.37,2013-02-06 23:55:00,
2013-02-06 18:58:00,32.9,17.2,30.30,SSW,202,2.3,2.3,52,0.00,CLR,,0.01,WeatherDisplay:10.37,2013-02-06 23:58:00,
2013-02-06 19:00:00,32.9,17.2,30.30,SSW,202,2.3,2.3,52,0.00,CLR,,0.01,WeatherDisplay:10.37,2013-02-07 00:00:00,
2013-02-06 19:01:00,32.2,16.1,30.33,ESE,112,2.3,2.3,51,0.00,CLR,,0.01,WeatherDisplay:10.37,2013-02-07 00:01:00,
2013-02-06 19:03:00,32.2,16.1,30.33,ESE,112,2.3,2.3,51,0.00,CLR,,0.01,WeatherDisplay:10.37,2013-02-07 00:03:00,
2013-02-06 19:05:00,32.2,16.1,30.33,ESE,112,1.1,1.1,51,0.00,CLR,,0.01,WeatherDisplay:10.37,2013-02-07 00:05:00,
2013-02-06 19:06:00,32.2,16.1,30.33,ESE,112,1.1,1.1,51,0.00,CLR,,0.01,WeatherDisplay:10.37,2013-02-07 00:06:00,
2013-02-06 19:08:00,32.2,16.1,30.33,ESE,112,1.1,1.1,51,0.00,CLR,,0.01,WeatherDisplay:10.37,2013-02-07 00:08:00,
2013-02-06 19:10:00,32.2,16.1,30.33,ESE,112,1.1,1.1,51,0.00,CLR,,0.01,WeatherDisplay:10.37,2013-02-07 00:10:00,
2013-02-06 19:11:00,32.2,16.1,30.33,ESE,112,1.1,1.1,51,0.00,CLR,,0.01,WeatherDisplay:10.37,2013-02-07 00:11:00,
2013-02-06 19:13:00,32.2,16.1,30.33,ESE,112,1.1,1.1,51,0.00,CLR,,0.01,WeatherDisplay:10.37,2013-02-07 00:13:00,
2013-02-06 19:15:00,32.2,16.1,30.33,ESE,112,1.1,1.1,51,0.00,CLR,,0.01,WeatherDisplay:10.37,2013-02-07 00:15:00,
2013-02-06 19:16:00,32.2,16.1,30.33,ESE,112,1.1,1.1,51,0.00,CLR,,0.01,WeatherDisplay:10.37,2013-02-07 00:16:00,
2013-02-06 19:18:00,32.2,16.1,30.33,ESE,112,1.1,1.1,51,0.00,CLR,,0.01,WeatherDisplay:10.37,2013-02-07 00:18:00,
2013-02-06 19:20:00,32.2,16.1,30.33,ESE,112,1.1,1.1,51,0.00,CLR,,0.01,WeatherDisplay:10.37,2013-02-07 00:20:00,
2013-02-06 19:21:00,32.2,16.1,30.33,ESE,112,1.1,1.1,51,0.00,CLR,,0.01,WeatherDisplay:10.37,2013-02-07 00:21:00,
2013-02-06 19:22:00,32.2,16.1,30.33,ESE,112,1.1,1.1,51,0.00,CLR,,0.01,WeatherDisplay:10.37,2013-02-07 00:22:00,
2013-02-06 19:23:00,32.2,16.1,30.33,ESE,112,1.1,1.1,51,0.00,CLR,,0.01,WeatherDisplay:10.37,2013-02-07 00:23:00,
2013-02-06 19:26:00,32.2,16.1,30.33,ESE,112,1.1,1.1,51,0.00,CLR,,0.01,WeatherDisplay:10.37,2013-02-07 00:26:00,
2013-02-06 19:27:00,32.2,16.1,30.33,ESE,112,1.1,1.1,51,0.00,CLR,,0.01,WeatherDisplay:10.37,2013-02-07 00:27:00,
2013-02-06 19:28:00,32.2,16.1,30.33,ESE,112,1.1,1.1,51,0.00,CLR,,0.01,WeatherDisplay:10.37,2013-02-07 00:28:00,
2013-02-06 19:31:00,31.3,15.7,30.34,ENE,68,1.1,1.1,52,0.00,CLR,,0.01,WeatherDisplay:10.37,2013-02-07 00:31:00,
2013-02-06 19:32:00,31.3,15.7,30.34,ENE,68,1.1,1.1,52,0.00,CLR,,0.01,WeatherDisplay:10.37,2013-02-07 00:32:00,
2013-02-06 19:33:00,31.3,15.7,30.34,ENE,68,1.1,1.1,52,0.00,CLR,,0.01,WeatherDisplay:10.37,2013-02-07 00:33:00,
2013-02-06 19:36:00,31.3,15.7,30.34,ENE,68,1.1,1.1,52,0.00,CLR,,0.01,WeatherDisplay:10.37,2013-02-07 00:36:00,
2013-02-06 19:37:00,31.3,15.7,30.34,ENE,68,1.1,1.1,52,0.00,CLR,,0.01,WeatherDisplay:10.37,2013-02-07 00:37:00,
2013-02-06 19:38:00,31.3,15.7,30.34,ENE,68,1.1,1.1,52,0.00,CLR,,0.01,WeatherDisplay:10.37,2013-02-07 00:38:00,
2013-02-06 19:41:00,31.3,15.7,30.34,ENE,68,1.1,1.1,52,0.00,CLR,,0.01,WeatherDisplay:10.37,2013-02-07 00:41:00,
2013-02-06 19:42:00,31.3,15.7,30.34,ENE,68,1.1,1.1,52,0.00,CLR,,0.01,WeatherDisplay:10.37,2013-02-07 00:42:00,
2013-02-06 19:43:00,31.3,15.7,30.34,ENE,68,1.1,1.1,52,0.00,CLR,,0.01,WeatherDisplay:10.37,2013-02-07 00:43:00,
2013-02-06 19:46:00,31.3,15.7,30.34,ENE,68,1.1,1.1,52,0.00,CLR,,0.01,WeatherDisplay:10.37,2013-02-07 00:46:00,
2013-02-06 19:47:00,31.3,15.7,30.34,ENE,68,1.1,1.1,52,0.00,CLR,,0.01,WeatherDisplay:10.37,2013-02-07 00:47:00,
2013-02-06 19:48:00,31.3,15.7,30.34,ENE,68,1.1,1.1,52,0.00,CLR,,0.01,WeatherDisplay:10.37,2013-02-07 00:48:00,
2013-02-06 19:51:00,31.3,15.7,30.34,ENE,68,1.1,1.1,52,0.00,CLR,,0.01,WeatherDisplay:10.37,2013-02-07 00:51:00,
2013-02-06 19:52:00,31.3,15.7,30.34,ENE,68,1.1,1.1,52,0.00,CLR,,0.01,WeatherDisplay:10.37,2013-02-07 00:52:00,
2013-02-06 19:53:00,31.3,15.7,30.34,ENE,68,1.1,1.1,52,0.00,CLR,,0.01,WeatherDisplay:10.37,2013-02-07 00:53:00,
2013-02-06 19:54:00,31.3,15.7,30.34,ENE,68,1.1,1.1,52,0.00,CLR,,0.01,WeatherDisplay:10.37,2013-02-07 00:54:00,
2013-02-06 19:56:00,31.3,15.7,30.34,ENE,68,1.1,1.1,52,0.00,CLR,,0.01,WeatherDisplay:10.37,2013-02-07 00:56:00,
2013-02-06 19:58:00,31.3,15.7,30.34,ENE,68,1.1,1.1,52,0.00,CLR,,0.01,WeatherDisplay:10.37,2013-02-07 00:58:00,
2013-02-06 19:59:00,31.3,15.7,30.34,ENE,68,1.1,1.1,52,0.00,CLR,,0.01,WeatherDisplay:10.37,2013-02-07 00:59:00,
2013-02-06 20:01:00,30.6,14.1,30.36,ESE,112,3.5,3.5,50,0.00,CLR,,0.01,WeatherDisplay:10.37,2013-02-07 01:01:00,
2013-02-06 20:03:00,30.6,14.1,30.36,ESE,112,3.5,3.5,50,0.00,CLR,,0.01,WeatherDisplay:10.37,2013-02-07 01:03:00,
2013-02-06 20:04:00,30.6,14.1,30.36,ESE,112,3.5,3.5,50,0.00,CLR,,0.01,WeatherDisplay:10.37,2013-02-07 01:04:00,
2013-02-06 20:06:00,30.6,14.1,30.36,ESE,112,3.5,3.5,50,0.00,CLR,,0.01,WeatherDisplay:10.37,2013-02-07 01:06:00,
2013-02-06 20:08:00,30.6,14.1,30.36,ESE,112,3.5,3.5,50,0.00,CLR,,0.01,WeatherDisplay:10.37,2013-02-07 01:08:00,
2013-02-06 20:09:00,30.6,14.1,30.36,ESE,112,3.5,3.5,50,0.00,CLR,,0.01,WeatherDisplay:10.37,2013-02-07 01:09:00,
2013-02-06 20:12:00,30.6,14.1,30.36,ESE,112,3.5,3.5,50,0.00,CLR,,0.01,WeatherDisplay:10.37,2013-02-07 01:12:00,
2013-02-06 20:13:00,30.6,14.1,30.36,ESE,112,3.5,3.5,50,0.00,CLR,,0.01,WeatherDisplay:10.37,2013-02-07 01:13:00,
2013-02-06 20:14:00,30.6,14.1,30.36,ESE,112,3.5,3.5,50,0.00,CLR,,0.01,WeatherDisplay:10.37,2013-02-07 01:14:00,
2013-02-06 20:17:00,30.6,14.1,30.36,ESE,112,3.5,3.5,50,0.00,CLR,,0.01,WeatherDisplay:10.37,2013-02-07 01:17:00,
2013-02-06 20:18:00,30.6,14.1,30.36,ESE,112,3.5,3.5,50,0.00,CLR,,0.01,WeatherDisplay:10.37,2013-02-07 01:18:00,
2013-02-06 20:19:00,30.6,14.1,30.36,ESE,112,3.5,3.5,50,0.00,CLR,,0.01,WeatherDisplay:10.37,2013-02-07 01:19:00,
2013-02-06 20:22:00,30.6,14.1,30.36,ESE,112,3.5,3.5,50,0.00,CLR,,0.01,WeatherDisplay:10.37,2013-02-07 01:22:00,
2013-02-06 20:23:00,30.6,14.1,30.36,ESE,112,3.5,3.5,50,0.00,CLR,,0.01,WeatherDisplay:10.37,2013-02-07 01:23:00,
2013-02-06 20:24:00,30.6,14.1,30.36,ESE,112,3.5,3.5,50,0.00,CLR,,0.01,WeatherDisplay:10.37,2013-02-07 01:24:00,
2013-02-06 20:27:00,30.6,14.1,30.36,ESE,112,3.5,3.5,50,0.00,CLR,,0.01,WeatherDisplay:10.37,2013-02-07 01:27:00,
2013-02-06 20:28:00,30.6,14.1,30.36,ESE,112,3.5,3.5,50,0.00,CLR,,0.01,WeatherDisplay:10.37,2013-02-07 01:28:00,
2013-02-06 20:29:00,30.6,14.1,30.36,ESE,112,3.5,3.5,50,0.00,CLR,,0.01,WeatherDisplay:10.37,2013-02-07 01:29:00,
2013-02-06 20:32:00,29.8,12.0,30.37,ESE,112,2.3,2.9,47,0.00,CLR,,0.01,WeatherDisplay:10.37,2013-02-07 01:32:00,
2013-02-06 20:34:00,29.8,12.0,30.37,ESE,112,2.3,2.9,47,0.00,CLR,,0.01,WeatherDisplay:10.37,2013-02-07 01:34:00,
2013-02-06 20:37:00,29.8,12.0,30.37,ESE,112,2.3,2.9,47,0.00,CLR,,0.01,WeatherDisplay:10.37,2013-02-07 01:37:00,
2013-02-06 20:39:00,29.8,12.0,30.37,ESE,112,2.3,2.9,47,0.00,CLR,,0.01,WeatherDisplay:10.37,2013-02-07 01:39:00,
2013-02-06 20:40:00,29.8,12.0,30.37,ESE,112,2.3,2.9,47,0.00,CLR,,0.01,WeatherDisplay:10.37,2013-02-07 01:40:00,
2013-02-06 20:42:00,29.8,12.0,30.37,ESE,112,2.3,2.9,47,0.00,CLR,,0.01,WeatherDisplay:10.37,2013-02-07 01:42:00,
2013-02-06 20:44:00,29.8,12.0,30.37,ESE,112,2.3,2.9,47,0.00,CLR,,0.01,WeatherDisplay:10.37,2013-02-07 01:44:00,
2013-02-06 20:45:00,29.8,12.0,30.37,ESE,112,2.0,3.0,47,0.00,CLR,,0.01,WeatherDisplay:10.37,2013-02-07 01:45:00,
2013-02-06 20:47:00,29.8,12.0,30.37,ESE,112,2.3,2.9,47,0.00,CLR,,0.01,WeatherDisplay:10.37,2013-02-07 01:47:00,
2013-02-06 20:49:00,29.8,12.0,30.37,ESE,112,2.3,2.9,47,0.00,CLR,,0.01,WeatherDisplay:10.37,2013-02-07 01:49:00,
2013-02-06 20:50:00,29.8,12.0,30.37,ESE,112,2.3,2.9,47,0.00,CLR,,0.01,WeatherDisplay:10.37,2013-02-07 01:50:00,
2013-02-06 20:52:00,29.8,12.0,30.37,ESE,112,2.3,2.9,47,0.00,CLR,,0.01,WeatherDisplay:10.37,2013-02-07 01:52:00,
2013-02-06 20:54:00,29.8,12.0,30.37,ESE,112,2.3,2.9,47,0.00,CLR,,0.01,WeatherDisplay:10.37,2013-02-07 01:54:00,
2013-02-06 20:55:00,29.8,12.0,30.37,ESE,112,2.3,2.9,47,0.00,CLR,,0.01,WeatherDisplay:10.37,2013-02-07 01:55:00,
2013-02-06 20:58:00,29.8,12.0,30.37,ESE,112,2.3,2.9,47,0.00,CLR,,0.01,WeatherDisplay:10.37,2013-02-07 01:58:00,
2013-02-06 20:59:00,29.8,12.0,30.37,ESE,112,2.9,2.9,47,0.00,CLR,,0.01,WeatherDisplay:10.37,2013-02-07 01:59:00,
2013-02-06 21:00:00,29.8,12.0,30.37,ESE,112,2.3,2.9,47,0.00,CLR,,0.01,WeatherDisplay:10.37,2013-02-07 02:00:00,
2013-02-06 21:03:00,29.1,11.8,30.39,ESE,112,1.1,1.1,48,0.00,CLR,,0.01,WeatherDisplay:10.37,2013-02-07 02:03:00,
2013-02-06 21:04:00,29.1,11.8,30.39,ESE,112,1.1,1.1,48,0.00,CLR,,0.01,WeatherDisplay:10.37,2013-02-07 02:04:00,
2013-02-06 21:05:00,29.1,11.8,30.39,ESE,112,1.0,2.0,48,0.00,CLR,,0.01,WeatherDisplay:10.37,2013-02-07 02:05:00,
2013-02-06 21:08:00,29.1,11.8,30.39,ESE,112,1.1,1.1,48,0.00,CLR,,0.01,WeatherDisplay:10.37,2013-02-07 02:08:00,
2013-02-06 21:10:00,29.1,11.8,30.39,ESE,112,1.1,1.1,48,0.00,CLR,,0.01,WeatherDisplay:10.37,2013-02-07 02:10:00,
2013-02-06 21:13:00,29.1,11.8,30.39,ESE,112,1.1,1.1,48,0.00,CLR,,0.01,WeatherDisplay:10.37,2013-02-07 02:13:00,
2013-02-06 21:15:00,29.1,11.8,30.39,ESE,112,1.1,1.1,48,0.00,CLR,,0.01,WeatherDisplay:10.37,2013-02-07 02:15:00,
2013-02-06 21:19:00,29.1,11.8,30.39,ESE,112,1.1,1.1,48,0.00,CLR,,0.01,WeatherDisplay:10.37,2013-02-07 02:19:00,
2013-02-06 21:20:00,29.1,11.8,30.39,ESE,112,1.1,1.1,48,0.00,CLR,,0.01,WeatherDisplay:10.37,2013-02-07 02:20:00,
2013-02-06 21:24:00,29.1,11.8,30.39,ESE,112,1.1,1.1,48,0.00,CLR,,0.01,WeatherDisplay:10.37,2013-02-07 02:24:00,
2013-02-06 21:25:00,29.1,11.8,30.39,ESE,112,1.0,1.0,48,0.00,CLR,,0.01,WeatherDisplay:10.37,2013-02-07 02:25:00,
2013-02-06 21:26:00,29.1,11.8,30.39,ESE,112,1.1,1.1,48,0.00,CLR,,0.01,WeatherDisplay:10.37,2013-02-07 02:26:00,
2013-02-06 21:29:00,29.1,11.8,30.39,ESE,112,1.1,1.1,48,0.00,CLR,,0.01,WeatherDisplay:10.37,2013-02-07 02:29:00,
2013-02-06 21:30:00,29.1,11.8,30.39,ESE,112,1.1,1.1,48,0.00,CLR,,0.01,WeatherDisplay:10.37,2013-02-07 02:30:00,
2013-02-06 21:31:00,28.6,9.4,30.39,ESE,112,1.1,1.1,44,0.00,CLR,,0.01,WeatherDisplay:10.37,2013-02-07 02:31:00,
2013-02-06 21:34:00,28.6,9.4,30.39,ESE,112,0.0,0.2,44,0.00,CLR,,0.01,WeatherDisplay:10.37,2013-02-07 02:34:00,
2013-02-06 21:35:00,28.6,9.4,30.39,ESE,112,0.0,0.2,44,0.00,CLR,,0.01,WeatherDisplay:10.37,2013-02-07 02:35:00,
2013-02-06 21:36:00,28.6,9.4,30.39,ESE,112,0.0,0.2,44,0.00,CLR,,0.01,WeatherDisplay:10.37,2013-02-07 02:36:00,
2013-02-06 21:39:00,28.6,9.4,30.39,ESE,112,0.2,0.2,44,0.00,CLR,,0.01,WeatherDisplay:10.37,2013-02-07 02:39:00,
2013-02-06 21:40:00,28.6,9.4,30.39,ESE,112,0.0,0.2,44,0.00,CLR,,0.01,WeatherDisplay:10.37,2013-02-07 02:40:00,
2013-02-06 21:41:00,28.6,9.4,30.39,ESE,112,0.0,0.2,44,0.00,CLR,,0.01,WeatherDisplay:10.37,2013-02-07 02:41:00,
2013-02-06 21:45:00,28.6,9.4,30.39,ESE,112,0.0,0.2,44,0.00,CLR,,0.01,WeatherDisplay:10.37,2013-02-07 02:45:00,
2013-02-06 21:46:00,28.6,9.4,30.39,ESE,112,0.0,0.2,44,0.00,CLR,,0.01,WeatherDisplay:10.37,2013-02-07 02:46:00,
2013-02-06 21:50:00,28.6,9.4,30.39,ESE,112,0.0,0.2,44,0.00,CLR,,0.01,WeatherDisplay:10.37,2013-02-07 02:50:00,
2013-02-06 21:51:00,28.6,9.4,30.39,ESE,112,0.0,0.2,44,0.00,CLR,,0.01,WeatherDisplay:10.37,2013-02-07 02:51:00,
2013-02-06 21:55:00,28.6,9.4,30.39,ESE,112,0.0,0.2,44,0.00,CLR,,0.01,WeatherDisplay:10.37,2013-02-07 02:55:00,
2013-02-06 21:56:00,28.6,9.4,30.39,ESE,112,0.0,0.2,44,0.00,CLR,,0.01,WeatherDisplay:10.37,2013-02-07 02:56:00,
2013-02-06 21:57:00,28.6,9.4,30.39,ESE,112,0.0,0.2,44,0.00,CLR,,0.01,WeatherDisplay:10.37,2013-02-07 02:57:00,
2013-02-06 22:00:00,28.6,9.4,30.39,ESE,112,0.0,0.2,44,0.00,CLR,,0.01,WeatherDisplay:10.37,2013-02-07 03:00:00,
2013-02-06 22:01:00,27.7,8.1,30.39,East,90,1.1,1.1,43,0.00,CLR,,0.01,WeatherDisplay:10.37,2013-02-07 03:01:00,
2013-02-06 22:02:00,27.7,8.1,30.39,East,90,1.1,1.1,43,0.00,CLR,,0.01,WeatherDisplay:10.37,2013-02-07 03:02:00,
2013-02-06 22:05:00,27.7,8.1,30.39,East,90,1.1,1.1,43,0.00,CLR,,0.01,WeatherDisplay:10.37,2013-02-07 03:05:00,
2013-02-06 22:06:00,27.7,8.1,30.39,East,90,1.1,1.1,43,0.00,CLR,,0.01,WeatherDisplay:10.37,2013-02-07 03:06:00,
2013-02-06 22:07:00,27.7,8.1,30.39,East,90,1.1,1.1,43,0.00,CLR,,0.01,WeatherDisplay:10.37,2013-02-07 03:07:00,
2013-02-06 22:11:00,27.7,8.1,30.39,East,90,1.1,1.1,43,0.00,CLR,,0.01,WeatherDisplay:10.37,2013-02-07 03:11:00,
2013-02-06 22:12:00,27.7,8.1,30.39,East,90,1.1,1.1,43,0.00,CLR,,0.01,WeatherDisplay:10.37,2013-02-07 03:12:00,
2013-02-06 22:16:00,27.7,8.1,30.39,East,90,1.1,1.1,43,0.00,CLR,,0.01,WeatherDisplay:10.37,2013-02-07 03:16:00,
2013-02-06 22:17:00,27.7,8.1,30.39,East,90,1.1,1.1,43,0.00,CLR,,0.01,WeatherDisplay:10.37,2013-02-07 03:17:00,
2013-02-06 22:21:00,27.7,8.1,30.39,East,90,1.1,1.1,43,0.00,CLR,,0.01,WeatherDisplay:10.37,2013-02-07 03:21:00,
2013-02-06 22:22:00,27.7,8.1,30.39,East,90,1.1,1.1,43,0.00,CLR,,0.01,WeatherDisplay:10.37,2013-02-07 03:22:00,
2013-02-06 22:26:00,27.7,8.1,30.39,East,90,1.1,1.1,43,0.00,CLR,,0.01,WeatherDisplay:10.37,2013-02-07 03:26:00,
2013-02-06 22:27:00,27.7,8.1,30.39,East,90,1.1,1.1,43,0.00,CLR,,0.01,WeatherDisplay:10.37,2013-02-07 03:27:00,
2013-02-06 22:31:00,27.1,6.5,30.43,ESE,112,1.1,1.1,41,0.00,CLR,,0.01,WeatherDisplay:10.37,2013-02-07 03:31:00,
2013-02-06 22:32:00,27.1,6.5,30.43,ESE,112,1.1,1.1,41,0.00,CLR,,0.01,WeatherDisplay:10.37,2013-02-07 03:32:00,
2013-02-06 22:36:00,27.1,6.5,30.43,ESE,112,1.1,1.1,41,0.00,CLR,,0.01,WeatherDisplay:10.37,2013-02-07 03:36:00,
2013-02-06 22:37:00,27.1,6.5,30.43,ESE,112,1.1,1.1,41,0.00,CLR,,0.01,WeatherDisplay:10.37,2013-02-07 03:37:00,
2013-02-06 22:38:00,27.1,6.5,30.43,ESE,112,1.1,1.1,41,0.00,CLR,,0.01,WeatherDisplay:10.37,2013-02-07 03:38:00,
2013-02-06 22:41:00,27.1,6.5,30.43,ESE,112,1.1,1.1,41,0.00,CLR,,0.01,WeatherDisplay:10.37,2013-02-07 03:41:00,
2013-02-06 22:42:00,27.1,6.5,30.43,ESE,112,1.1,1.1,41,0.00,CLR,,0.01,WeatherDisplay:10.37,2013-02-07 03:42:00,
2013-02-06 22:43:00,27.1,6.5,30.43,ESE,112,1.1,1.1,41,0.00,CLR,,0.01,WeatherDisplay:10.37,2013-02-07 03:43:00,
2013-02-06 22:46:00,27.1,6.5,30.43,ESE,112,1.1,1.1,41,0.00,CLR,,0.01,WeatherDisplay:10.37,2013-02-07 03:46:00,
2013-02-06 22:47:00,27.1,6.5,30.43,ESE,112,1.1,1.1,41,0.00,CLR,,0.01,WeatherDisplay:10.37,2013-02-07 03:47:00,
2013-02-06 22:48:00,27.1,6.5,30.43,ESE,112,1.1,1.1,41,0.00,CLR,,0.01,WeatherDisplay:10.37,2013-02-07 03:48:00,
2013-02-06 22:51:00,27.1,6.5,30.43,ESE,112,1.1,1.1,41,0.00,CLR,,0.01,WeatherDisplay:10.37,2013-02-07 03:51:00,
2013-02-06 22:52:00,27.1,6.5,30.43,ESE,112,1.1,1.1,41,0.00,CLR,,0.01,WeatherDisplay:10.37,2013-02-07 03:52:00,
2013-02-06 22:53:00,27.1,6.5,30.43,ESE,112,1.1,1.1,41,0.00,CLR,,0.01,WeatherDisplay:10.37,2013-02-07 03:53:00,
2013-02-06 22:57:00,27.1,6.5,30.43,ESE,112,1.1,1.1,41,0.00,CLR,,0.01,WeatherDisplay:10.37,2013-02-07 03:57:00,
2013-02-06 22:58:00,27.1,6.5,30.43,ESE,112,1.1,1.1,41,0.00,CLR,,0.01,WeatherDisplay:10.37,2013-02-07 03:58:00,
2013-02-06 23:02:00,26.4,6.9,30.44,ESE,112,0.0,0.0,43,0.00,CLR,,0.01,WeatherDisplay:10.37,2013-02-07 04:02:00,
2013-02-06 23:03:00,26.4,6.9,30.44,ESE,112,0.0,0.0,43,0.00,CLR,,0.01,WeatherDisplay:10.37,2013-02-07 04:03:00,
2013-02-06 23:04:00,26.4,6.9,30.44,ESE,112,0.0,0.0,43,0.00,CLR,,0.01,WeatherDisplay:10.37,2013-02-07 04:04:00,
2013-02-06 23:07:00,26.4,6.9,30.44,ESE,112,0.0,0.0,43,0.00,CLR,,0.01,WeatherDisplay:10.37,2013-02-07 04:07:00,
2013-02-06 23:08:00,26.4,6.9,30.44,ESE,112,0.0,0.0,43,0.00,CLR,,0.01,WeatherDisplay:10.37,2013-02-07 04:08:00,
2013-02-06 23:09:00,26.4,6.9,30.44,ESE,112,0.0,0.0,43,0.00,CLR,,0.01,WeatherDisplay:10.37,2013-02-07 04:09:00,
2013-02-06 23:12:00,26.4,6.9,30.44,ESE,112,0.0,0.0,43,0.00,CLR,,0.01,WeatherDisplay:10.37,2013-02-07 04:12:00,
2013-02-06 23:13:00,26.4,6.9,30.44,ESE,112,0.0,0.0,43,0.00,CLR,,0.01,WeatherDisplay:10.37,2013-02-07 04:13:00,
2013-02-06 23:14:00,26.4,6.9,30.44,ESE,112,0.0,0.0,43,0.00,CLR,,0.01,WeatherDisplay:10.37,2013-02-07 04:14:00,
2013-02-06 23:17:00,26.4,6.9,30.44,ESE,112,0.0,0.0,43,0.00,CLR,,0.01,WeatherDisplay:10.37,2013-02-07 04:17:00,
2013-02-06 23:18:00,26.4,6.9,30.44,ESE,112,0.0,0.0,43,0.00,CLR,,0.01,WeatherDisplay:10.37,2013-02-07 04:18:00,
2013-02-06 23:19:00,26.4,6.9,30.44,ESE,112,0.0,0.0,43,0.00,CLR,,0.01,WeatherDisplay:10.37,2013-02-07 04:19:00,
2013-02-06 23:22:00,26.4,6.9,30.44,ESE,112,0.0,0.0,43,0.00,CLR,,0.01,WeatherDisplay:10.37,2013-02-07 04:22:00,
2013-02-06 23:23:00,26.4,6.9,30.44,ESE,112,0.0,0.0,43,0.00,CLR,,0.01,WeatherDisplay:10.37,2013-02-07 04:23:00,
2013-02-06 23:24:00,26.4,6.9,30.44,ESE,112,0.0,0.0,43,0.00,CLR,,0.01,WeatherDisplay:10.37,2013-02-07 04:24:00,
2013-02-06 23:28:00,26.4,6.9,30.44,ESE,112,0.0,0.0,43,0.00,CLR,,0.01,WeatherDisplay:10.37,2013-02-07 04:28:00,
2013-02-06 23:29:00,26.4,6.9,30.44,ESE,112,0.0,0.0,43,0.00,CLR,,0.01,WeatherDisplay:10.37,2013-02-07 04:29:00,
2013-02-06 23:33:00,25.7,6.3,30.43,SSE,158,0.0,0.2,43,0.00,CLR,,0.01,WeatherDisplay:10.37,2013-02-07 04:33:00,
2013-02-06 23:34:00,25.7,6.3,30.43,SSE,158,0.0,0.2,43,0.00,CLR,,0.01,WeatherDisplay:10.37,2013-02-07 04:34:00,
2013-02-06 23:35:00,25.7,6.3,30.43,SSE,158,0.0,0.2,43,0.00,CLR,,0.01,WeatherDisplay:10.37,2013-02-07 04:35:00,
2013-02-06 23:38:00,25.7,6.3,30.43,SSE,158,0.0,0.2,43,0.00,CLR,,0.01,WeatherDisplay:10.37,2013-02-07 04:38:00,
2013-02-06 23:39:00,25.7,6.3,30.43,SSE,158,0.0,0.2,43,0.00,CLR,,0.01,WeatherDisplay:10.37,2013-02-07 04:39:00,
2013-02-06 23:40:00,25.7,6.3,30.43,SSE,158,0.0,0.0,43,0.00,CLR,,0.01,WeatherDisplay:10.37,2013-02-07 04:40:00,
2013-02-06 23:43:00,25.7,6.3,30.43,SSE,158,0.0,0.2,43,0.00,CLR,,0.01,WeatherDisplay:10.37,2013-02-07 04:43:00,
2013-02-06 23:44:00,25.7,6.3,30.43,SSE,158,0.0,0.2,43,0.00,CLR,,0.01,WeatherDisplay:10.37,2013-02-07 04:44:00,
2013-02-06 23:45:00,25.7,6.3,30.43,SSE,158,0.0,0.2,43,0.00,CLR,,0.01,WeatherDisplay:10.37,2013-02-07 04:45:00,
2013-02-06 23:48:00,25.7,6.3,30.43,SSE,158,0.0,0.2,43,0.00,CLR,,0.01,WeatherDisplay:10.37,2013-02-07 04:48:00,
2013-02-06 23:50:00,25.7,6.3,30.43,SSE,158,0.0,0.2,43,0.00,CLR,,0.01,WeatherDisplay:10.37,2013-02-07 04:50:00,
2013-02-06 23:53:00,25.7,6.3,30.43,SSE,158,0.0,0.2,43,0.00,CLR,,0.01,WeatherDisplay:10.37,2013-02-07 04:53:00,
2013-02-06 23:55:00,25.7,6.3,30.43,SSE,158,0.0,0.2,43,0.00,CLR,,0.01,WeatherDisplay:10.37,2013-02-07 04:55:00,
2013-02-06 23:56:00,25.7,6.3,30.43,SSE,158,0.0,0.2,43,0.00,CLR,,0.01,WeatherDisplay:10.37,2013-02-07 04:56:00,
2013-02-06 23:58:00,25.7,6.3,30.43,SSE,158,0.0,0.2,43,0.00,CLR,,0.01,WeatherDisplay:10.37,2013-02-07 04:58:00,